Time,TemperatureF,DewpointF,PressureIn,WindDirection,WindDirectionDegrees,WindSpeedMPH,WindSpeedGustMPH,Humidity,HourlyPrecipIn,Conditions,Clouds,dailyrainin,SoftwareType,DateUTC
2013-01-01 00:00:00,70.8,58.0,30.11,SSE,160,2.0,2.0,64,0.00,,,0.00,Wunderground v.1.15,2013-01-01 05:00:00,
2013-01-01 00:01:00,70.8,58.0,30.11,ESE,121,2.0,8.0,64,0.00,,,0.00,Wunderground v.1.15,2013-01-01 05:01:00,
2013-01-01 00:03:00,70.8,58.0,30.11,SSE,164,2.0,8.0,64,0.00,,,0.00,Wunderground v.1.15,2013-01-01 05:03:00,
2013-01-01 00:07:00,70.8,57.6,30.11,SSE,151,2.0,8.0,63,0.00,,,0.00,Wunderground v.1.15,2013-01-01 05:07:00,
2013-01-01 00:08:00,70.8,57.6,30.11,SE,130,2.0,8.0,63,0.00,,,0.00,Wunderground v.1.15,2013-01-01 05:08:00,
2013-01-01 00:11:00,70.8,58.0,30.11,SE,130,2.0,8.0,64,0.00,,,0.00,Wunderground v.1.15,2013-01-01 05:11:00,
2013-01-01 00:13:00,70.8,58.0,30.11,ESE,104,1.0,8.0,64,0.00,,,0.00,Wunderground v.1.15,2013-01-01 05:13:00,
2013-01-01 00:14:00,70.8,58.0,30.11,ESE,103,2.0,8.0,64,0.00,,,0.00,Wunderground v.1.15,2013-01-01 05:14:00,
2013-01-01 00:17:00,70.8,57.6,30.11,SSE,158,2.0,8.0,63,0.00,,,0.00,Wunderground v.1.15,2013-01-01 05:17:00,
2013-01-01 00:18:00,70.8,58.0,30.11,SSE,158,2.0,8.0,64,0.00,,,0.00,Wunderground v.1.15,2013-01-01 05:18:00,
2013-01-01 00:19:00,70.8,58.0,30.11,SSE,158,1.0,8.0,64,0.00,,,0.00,Wunderground v.1.15,2013-01-01 05:19:00,
2013-01-01 00:24:00,70.8,57.6,30.11,SE,133,1.0,8.0,63,0.00,,,0.00,Wunderground v.1.15,2013-01-01 05:24:00,
2013-01-01 00:25:00,70.8,57.6,30.11,SE,130,1.0,8.0,63,0.00,,,0.00,Wunderground v.1.15,2013-01-01 05:25:00,
2013-01-01 00:26:00,70.8,58.0,30.11,ESE,123,1.0,8.0,64,0.00,,,0.00,Wunderground v.1.15,2013-01-01 05:26:00,
2013-01-01 00:31:00,70.8,58.0,30.11,SE,128,2.0,8.0,64,0.00,,,0.00,Wunderground v.1.15,2013-01-01 05:31:00,
2013-01-01 00:32:00,70.8,58.0,30.11,SSE,151,2.0,8.0,64,0.00,,,0.00,Wunderground v.1.15,2013-01-01 05:32:00,
2013-01-01 00:33:00,70.9,58.1,30.11,SSE,167,2.0,8.0,64,0.00,,,0.00,Wunderground v.1.15,2013-01-01 05:33:00,
2013-01-01 00:38:00,70.8,58.0,30.11,SE,131,2.0,8.0,64,0.00,,,0.00,Wunderground v.1.15,2013-01-01 05:38:00,
2013-01-01 00:39:00,70.8,58.4,30.11,SE,131,2.0,8.0,65,0.00,,,0.00,Wunderground v.1.15,2013-01-01 05:39:00,
2013-01-01 00:41:00,70.8,58.4,30.11,SE,134,2.0,8.0,65,0.00,,,0.00,Wunderground v.1.15,2013-01-01 05:41:00,
2013-01-01 00:44:00,70.8,58.4,30.11,ESE,102,2.0,8.0,65,0.00,,,0.00,Wunderground v.1.15,2013-01-01 05:44:00,
2013-01-01 00:45:00,70.8,58.4,30.10,ESE,102,2.0,8.0,65,0.00,,,0.00,Wunderground v.1.15,2013-01-01 05:45:00,
2013-01-01 00:47:00,70.6,58.3,30.10,ESE,106,2.0,8.0,65,0.00,,,0.00,Wunderground v.1.15,2013-01-01 05:47:00,
2013-01-01 00:49:00,70.6,58.3,30.10,ESE,107,2.0,8.0,65,0.00,,,0.00,Wunderground v.1.15,2013-01-01 05:49:00,
2013-01-01 00:51:00,70.6,58.7,30.10,ESE,116,2.0,8.0,66,0.00,,,0.00,Wunderground v.1.15,2013-01-01 05:51:00,
2013-01-01 00:52:00,70.6,58.7,30.10,SE,126,2.0,8.0,66,0.00,,,0.00,Wunderground v.1.15,2013-01-01 05:52:00,
2013-01-01 00:53:00,70.6,58.7,30.10,SE,126,2.0,8.0,66,0.00,,,0.00,Wunderground v.1.15,2013-01-01 05:53:00,
2013-01-01 00:57:00,70.6,58.3,30.10,SE,137,1.0,8.0,65,0.00,,,0.00,Wunderground v.1.15,2013-01-01 05:57:00,
2013-01-01 00:58:00,70.6,58.3,30.10,ESE,123,2.0,8.0,65,0.00,,,0.00,Wunderground v.1.15,2013-01-01 05:58:00,
2013-01-01 00:59:00,70.6,58.3,30.10,ESE,123,2.0,8.0,65,0.00,,,0.00,Wunderground v.1.15,2013-01-01 05:59:00,
2013-01-01 01:04:00,70.8,57.6,30.10,SE,131,2.0,8.0,63,0.00,,,0.00,Wunderground v.1.15,2013-01-01 06:04:00,
2013-01-01 01:05:00,70.8,57.6,30.10,SE,134,2.0,8.0,63,0.00,,,0.00,Wunderground v.1.15,2013-01-01 06:05:00,
2013-01-01 01:08:00,70.8,57.6,30.10,SSE,148,2.0,8.0,63,0.00,,,0.00,Wunderground v.1.15,2013-01-01 06:08:00,
2013-01-01 01:09:00,70.8,57.6,30.10,SSE,148,2.0,8.0,63,0.00,,,0.00,Wunderground v.1.15,2013-01-01 06:09:00,
2013-01-01 01:10:00,70.8,57.6,30.10,SE,144,2.0,2.0,63,0.00,,,0.00,Wunderground v.1.15,2013-01-01 06:10:00,
2013-01-01 01:15:00,70.9,57.7,30.10,SSE,161,2.0,8.0,63,0.00,,,0.00,Wunderground v.1.15,2013-01-01 06:15:00,
2013-01-01 01:16:00,70.9,58.1,30.10,SSE,162,2.0,8.0,64,0.00,,,0.00,Wunderground v.1.15,2013-01-01 06:16:00,
2013-01-01 01:17:00,70.9,58.1,30.10,SSE,162,2.0,8.0,64,0.00,,,0.00,Wunderground v.1.15,2013-01-01 06:17:00,
2013-01-01 01:21:00,70.8,58.0,30.10,SSE,162,1.0,8.0,64,0.00,,,0.00,Wunderground v.1.15,2013-01-01 06:21:00,
2013-01-01 01:23:00,70.8,58.0,30.10,SSE,162,1.0,8.0,64,0.00,,,0.00,Wunderground v.1.15,2013-01-01 06:23:00,
2013-01-01 01:24:00,70.8,58.0,30.10,SSE,162,1.0,8.0,64,0.00,,,0.00,Wunderground v.1.15,2013-01-01 06:24:00,
2013-01-01 01:28:00,70.6,57.8,30.10,SSE,162,0.0,8.0,64,0.00,,,0.00,Wunderground v.1.15,2013-01-01 06:28:00,
2013-01-01 01:29:00,70.6,57.8,30.10,SSE,162,0.0,8.0,64,0.00,,,0.00,Wunderground v.1.15,2013-01-01 06:29:00,
2013-01-01 01:30:00,70.6,58.3,30.09,SSE,162,0.0,8.0,65,0.00,,,0.00,Wunderground v.1.15,2013-01-01 06:30:00,
2013-01-01 01:31:00,70.6,58.3,30.09,SSE,162,0.0,8.0,65,0.00,,,0.00,Wunderground v.1.15,2013-01-01 06:31:00,
2013-01-01 01:36:00,70.4,58.1,30.09,SSE,161,0.0,8.0,65,0.00,,,0.00,Wunderground v.1.15,2013-01-01 06:36:00,
2013-01-01 01:38:00,70.4,58.1,30.09,SSE,161,0.0,8.0,65,0.00,,,0.00,Wunderground v.1.15,2013-01-01 06:38:00,
2013-01-01 01:39:00,70.3,58.0,30.09,SSE,161,0.0,8.0,65,0.00,,,0.00,Wunderground v.1.15,2013-01-01 06:39:00,
2013-01-01 01:40:00,70.3,58.0,30.09,SSE,161,0.0,8.0,65,0.00,,,0.00,Wunderground v.1.15,2013-01-01 06:40:00,
2013-01-01 01:43:00,70.3,58.4,30.09,SSE,161,0.0,8.0,66,0.00,,,0.00,Wunderground v.1.15,2013-01-01 06:43:00,
2013-01-01 01:45:00,70.3,58.4,30.09,SSE,161,0.0,8.0,66,0.00,,,0.00,Wunderground v.1.15,2013-01-01 06:45:00,
2013-01-01 01:47:00,70.1,58.2,30.09,SSE,161,0.0,8.0,66,0.00,,,0.00,Wunderground v.1.15,2013-01-01 06:47:00,
2013-01-01 01:51:00,70.1,58.2,30.09,SSE,161,0.0,8.0,66,0.00,,,0.00,Wunderground v.1.15,2013-01-01 06:51:00,
2013-01-01 01:52:00,70.1,58.2,30.09,SSE,161,0.0,8.0,66,0.00,,,0.00,Wunderground v.1.15,2013-01-01 06:52:00,
2013-01-01 01:56:00,70.1,58.2,30.09,SSE,161,0.0,8.0,66,0.00,,,0.00,Wunderground v.1.15,2013-01-01 06:56:00,
2013-01-01 01:59:00,70.1,58.2,30.09,SSE,161,0.0,8.0,66,0.00,,,0.00,Wunderground v.1.15,2013-01-01 06:59:00,
2013-01-01 02:00:00,70.1,58.2,30.09,SSE,161,0.0,8.0,66,0.00,,,0.00,Wunderground v.1.15,2013-01-01 07:00:00,
2013-01-01 02:02:00,70.1,58.2,30.09,SSE,161,0.0,8.0,66,0.00,,,0.00,Wunderground v.1.15,2013-01-01 07:02:00,
2013-01-01 02:03:00,70.1,58.2,30.09,SSE,161,0.0,8.0,66,0.00,,,0.00,Wunderground v.1.15,2013-01-01 07:03:00,
2013-01-01 02:06:00,70.1,58.2,30.09,SSE,161,0.0,8.0,66,0.00,,,0.00,Wunderground v.1.15,2013-01-01 07:06:00,
2013-01-01 02:08:00,70.1,58.2,30.09,SSE,161,0.0,8.0,66,0.00,,,0.00,Wunderground v.1.15,2013-01-01 07:08:00,
2013-01-01 02:09:00,70.1,58.2,30.09,SSE,161,0.0,8.0,66,0.00,,,0.00,Wunderground v.1.15,2013-01-01 07:09:00,
2013-01-01 02:13:00,70.1,58.2,30.09,SSE,161,0.0,8.0,66,0.00,,,0.00,Wunderground v.1.15,2013-01-01 07:13:00,
2013-01-01 02:14:00,70.1,58.2,30.09,SSE,161,0.0,8.0,66,0.00,,,0.00,Wunderground v.1.15,2013-01-01 07:14:00,
2013-01-01 02:18:00,70.1,58.6,30.09,SSE,161,0.0,8.0,67,0.00,,,0.00,Wunderground v.1.15,2013-01-01 07:18:00,
2013-01-01 02:19:00,69.9,58.4,30.09,SSE,161,0.0,8.0,67,0.00,,,0.00,Wunderground v.1.15,2013-01-01 07:19:00,
2013-01-01 02:21:00,69.9,58.4,30.09,SSE,161,0.0,8.0,67,0.00,,,0.00,Wunderground v.1.15,2013-01-01 07:21:00,
2013-01-01 02:23:00,69.9,58.4,30.09,SSE,161,0.0,8.0,67,0.00,,,0.00,Wunderground v.1.15,2013-01-01 07:23:00,
2013-01-01 02:25:00,69.9,58.9,30.09,SSE,161,0.0,8.0,68,0.00,,,0.00,Wunderground v.1.15,2013-01-01 07:25:00,
2013-01-01 02:27:00,69.8,58.8,30.09,SSE,161,0.0,8.0,68,0.00,,,0.00,Wunderground v.1.15,2013-01-01 07:27:00,
2013-01-01 02:29:00,69.8,58.8,30.09,SSE,161,0.0,8.0,68,0.00,,,0.00,Wunderground v.1.15,2013-01-01 07:29:00,
2013-01-01 02:30:00,69.9,59.3,30.09,SSE,161,0.0,8.0,69,0.00,,,0.00,Wunderground v.1.15,2013-01-01 07:30:00,
2013-01-01 02:31:00,69.9,59.3,30.09,SSE,161,0.0,8.0,69,0.00,,,0.00,Wunderground v.1.15,2013-01-01 07:31:00,
2013-01-01 02:35:00,70.1,59.5,30.09,SSE,161,0.0,8.0,69,0.00,,,0.00,Wunderground v.1.15,2013-01-01 07:35:00,
2013-01-01 02:36:00,70.1,59.0,30.09,SSE,154,0.0,8.0,68,0.00,,,0.00,Wunderground v.1.15,2013-01-01 07:36:00,
2013-01-01 02:37:00,70.1,59.0,30.09,SSW,208,0.0,8.0,68,0.00,,,0.00,Wunderground v.1.15,2013-01-01 07:37:00,
2013-01-01 02:39:00,70.3,58.8,30.09,SSW,206,0.0,8.0,67,0.00,,,0.00,Wunderground v.1.15,2013-01-01 07:39:00,
2013-01-01 02:42:00,70.4,58.9,30.09,SSW,205,0.0,8.0,67,0.00,,,0.00,Wunderground v.1.15,2013-01-01 07:42:00,
2013-01-01 02:43:00,70.4,58.5,30.09,SSW,203,0.0,8.0,66,0.00,,,0.00,Wunderground v.1.15,2013-01-01 07:43:00,
2013-01-01 02:45:00,70.4,58.5,30.09,SSW,198,1.0,8.0,66,0.00,,,0.00,Wunderground v.1.15,2013-01-01 07:45:00,
2013-01-01 02:48:00,70.6,57.8,30.09,SSE,160,1.0,8.0,64,0.00,,,0.00,Wunderground v.1.15,2013-01-01 07:48:00,
2013-01-01 02:50:00,70.6,57.8,30.09,South,175,2.0,8.0,64,0.00,,,0.00,Wunderground v.1.15,2013-01-01 07:50:00,
2013-01-01 02:51:00,70.6,57.8,30.09,South,175,2.0,8.0,64,0.00,,,0.00,Wunderground v.1.15,2013-01-01 07:51:00,
2013-01-01 02:54:00,70.6,57.8,30.09,South,171,2.0,8.0,64,0.00,,,0.00,Wunderground v.1.15,2013-01-01 07:54:00,
2013-01-01 02:55:00,70.6,57.8,30.09,South,171,2.0,8.0,64,0.00,,,0.00,Wunderground v.1.15,2013-01-01 07:55:00,
2013-01-01 02:56:00,70.6,57.8,30.09,South,171,2.0,8.0,64,0.00,,,0.00,Wunderground v.1.15,2013-01-01 07:56:00,
2013-01-01 02:57:00,70.4,57.6,30.09,South,171,2.0,8.0,64,0.00,,,0.00,Wunderground v.1.15,2013-01-01 07:57:00,
2013-01-01 03:02:00,70.3,57.5,30.09,South,171,1.0,8.0,64,0.00,,,0.00,Wunderground v.1.15,2013-01-01 08:02:00,
2013-01-01 03:04:00,70.1,57.4,30.09,South,172,0.0,8.0,64,0.00,,,0.00,Wunderground v.1.15,2013-01-01 08:04:00,
2013-01-01 03:06:00,70.1,57.4,30.09,South,171,0.0,8.0,64,0.00,,,0.00,Wunderground v.1.15,2013-01-01 08:06:00,
2013-01-01 03:12:00,69.8,57.5,30.09,South,171,0.0,8.0,65,0.00,,,0.00,Wunderground v.1.15,2013-01-01 08:12:00,
2013-01-01 03:13:00,69.8,57.5,30.09,South,171,0.0,8.0,65,0.00,,,0.00,Wunderground v.1.15,2013-01-01 08:13:00,
2013-01-01 03:15:00,69.6,57.3,30.09,South,171,0.0,8.0,65,0.00,,,0.00,Wunderground v.1.15,2013-01-01 08:15:00,
2013-01-01 03:18:00,69.6,57.3,30.09,South,172,0.0,8.0,65,0.00,,,0.00,Wunderground v.1.15,2013-01-01 08:18:00,
2013-01-01 03:20:00,69.6,57.3,30.09,SSE,154,0.0,8.0,65,0.00,,,0.00,Wunderground v.1.15,2013-01-01 08:20:00,
2013-01-01 03:21:00,69.6,57.7,30.09,SSE,154,0.0,8.0,66,0.00,,,0.00,Wunderground v.1.15,2013-01-01 08:21:00,
2013-01-01 03:23:00,69.4,57.1,30.09,SSE,154,0.0,8.0,65,0.00,,,0.00,Wunderground v.1.15,2013-01-01 08:23:00,
2013-01-01 03:26:00,69.4,57.1,30.09,SSE,154,0.0,8.0,65,0.00,,,0.00,Wunderground v.1.15,2013-01-01 08:26:00,
2013-01-01 03:28:00,69.4,57.1,30.09,SSE,154,0.0,8.0,65,0.00,,,0.00,Wunderground v.1.15,2013-01-01 08:28:00,
2013-01-01 03:29:00,69.4,57.1,30.09,SSE,154,0.0,8.0,65,0.00,,,0.00,Wunderground v.1.15,2013-01-01 08:29:00,
2013-01-01 03:30:00,69.4,57.1,30.09,SSE,154,0.0,8.0,65,0.00,,,0.00,Wunderground v.1.15,2013-01-01 08:30:00,
2013-01-01 03:34:00,69.4,57.1,30.09,SSE,154,0.0,8.0,65,0.00,,,0.00,Wunderground v.1.15,2013-01-01 08:34:00,
2013-01-01 03:38:00,69.4,57.5,30.09,SSE,154,0.0,8.0,66,0.00,,,0.00,Wunderground v.1.15,2013-01-01 08:38:00,
2013-01-01 03:40:00,69.3,57.5,30.09,SSE,154,0.0,8.0,66,0.00,,,0.00,Wunderground v.1.15,2013-01-01 08:40:00,
2013-01-01 03:42:00,69.3,57.5,30.09,SSE,154,0.0,8.0,66,0.00,,,0.00,Wunderground v.1.15,2013-01-01 08:42:00,
2013-01-01 03:43:00,69.3,57.5,30.09,SSE,154,0.0,8.0,66,0.00,,,0.00,Wunderground v.1.15,2013-01-01 08:43:00,
2013-01-01 03:46:00,69.3,57.5,30.09,SSE,154,0.0,8.0,66,0.00,,,0.00,Wunderground v.1.15,2013-01-01 08:46:00,
2013-01-01 03:50:00,69.1,57.7,30.09,SSE,154,0.0,8.0,67,0.00,,,0.00,Wunderground v.1.15,2013-01-01 08:50:00,
2013-01-01 03:51:00,69.1,57.7,30.09,SSE,154,0.0,8.0,67,0.00,,,0.00,Wunderground v.1.15,2013-01-01 08:51:00,
2013-01-01 03:52:00,69.1,57.7,30.09,SSE,154,0.0,8.0,67,0.00,,,0.00,Wunderground v.1.15,2013-01-01 08:52:00,
2013-01-01 03:54:00,69.1,57.7,30.09,SSE,154,0.0,8.0,67,0.00,,,0.00,Wunderground v.1.15,2013-01-01 08:54:00,
2013-01-01 03:56:00,69.1,57.7,30.09,SSE,154,0.0,8.0,67,0.00,,,0.00,Wunderground v.1.15,2013-01-01 08:56:00,
2013-01-01 03:57:00,69.1,57.7,30.09,SSE,154,0.0,8.0,67,0.00,,,0.00,Wunderground v.1.15,2013-01-01 08:57:00,
2013-01-01 03:58:00,69.1,57.7,30.09,SSE,154,0.0,8.0,67,0.00,,,0.00,Wunderground v.1.15,2013-01-01 08:58:00,
2013-01-01 03:59:00,69.1,57.7,30.09,SSE,154,0.0,8.0,67,0.00,,,0.00,Wunderground v.1.15,2013-01-01 08:59:00,
2013-01-01 04:03:00,69.1,57.3,30.09,SSE,154,0.0,8.0,66,0.00,,,0.00,Wunderground v.1.15,2013-01-01 09:03:00,
2013-01-01 04:05:00,69.1,57.3,30.09,SSE,154,0.0,8.0,66,0.00,,,0.00,Wunderground v.1.15,2013-01-01 09:05:00,
2013-01-01 04:07:00,69.1,57.3,30.09,SSE,154,0.0,8.0,66,0.00,,,0.00,Wunderground v.1.15,2013-01-01 09:07:00,
2013-01-01 04:11:00,69.1,57.3,30.09,SSE,154,0.0,8.0,66,0.00,,,0.00,Wunderground v.1.15,2013-01-01 09:11:00,
2013-01-01 04:12:00,69.1,57.3,30.09,SSE,154,0.0,8.0,66,0.00,,,0.00,Wunderground v.1.15,2013-01-01 09:12:00,
2013-01-01 04:14:00,69.3,57.5,30.09,SSE,154,0.0,8.0,66,0.00,,,0.00,Wunderground v.1.15,2013-01-01 09:14:00,
2013-01-01 04:15:00,69.3,57.5,30.08,SSE,154,0.0,8.0,66,0.00,,,0.00,Wunderground v.1.15,2013-01-01 09:15:00,
2013-01-01 04:17:00,69.3,57.5,30.08,SSE,154,0.0,8.0,66,0.00,,,0.00,Wunderground v.1.15,2013-01-01 09:17:00,
2013-01-01 04:18:00,69.3,57.5,30.08,SSE,154,0.0,8.0,66,0.00,,,0.00,Wunderground v.1.15,2013-01-01 09:18:00,
2013-01-01 04:19:00,69.1,57.3,30.08,SSE,154,0.0,8.0,66,0.00,,,0.00,Wunderground v.1.15,2013-01-01 09:19:00,
2013-01-01 04:23:00,69.1,57.3,30.08,SSE,152,0.0,8.0,66,0.00,,,0.00,Wunderground v.1.15,2013-01-01 09:23:00,
2013-01-01 04:24:00,69.1,57.3,30.08,SSE,152,0.0,8.0,66,0.00,,,0.00,Wunderground v.1.15,2013-01-01 09:24:00,
2013-01-01 04:29:00,69.1,57.3,30.08,SSE,152,0.0,8.0,66,0.00,,,0.00,Wunderground v.1.15,2013-01-01 09:29:00,
2013-01-01 04:30:00,69.1,57.3,30.08,SSE,152,0.0,8.0,66,0.00,,,0.00,Wunderground v.1.15,2013-01-01 09:30:00,
2013-01-01 04:31:00,69.1,57.3,30.08,SSE,154,0.0,8.0,66,0.00,,,0.00,Wunderground v.1.15,2013-01-01 09:31:00,
2013-01-01 04:32:00,69.1,57.3,30.08,SSE,152,0.0,8.0,66,0.00,,,0.00,Wunderground v.1.15,2013-01-01 09:32:00,
2013-01-01 04:36:00,69.1,57.3,30.08,SSE,152,0.0,8.0,66,0.00,,,0.00,Wunderground v.1.15,2013-01-01 09:36:00,
2013-01-01 04:37:00,69.1,57.3,30.08,SSE,154,0.0,8.0,66,0.00,,,0.00,Wunderground v.1.15,2013-01-01 09:37:00,
2013-01-01 04:41:00,69.1,57.7,30.08,SSE,152,0.0,8.0,67,0.00,,,0.00,Wunderground v.1.15,2013-01-01 09:41:00,
2013-01-01 04:42:00,69.1,57.7,30.08,SSE,152,0.0,8.0,67,0.00,,,0.00,Wunderground v.1.15,2013-01-01 09:42:00,
2013-01-01 04:43:00,69.1,57.7,30.08,SSE,152,0.0,8.0,67,0.00,,,0.00,Wunderground v.1.15,2013-01-01 09:43:00,
2013-01-01 04:46:00,68.9,57.5,30.07,SSE,152,0.0,8.0,67,0.00,,,0.00,Wunderground v.1.15,2013-01-01 09:46:00,
2013-01-01 04:47:00,69.1,57.7,30.07,SSE,154,0.0,8.0,67,0.00,,,0.00,Wunderground v.1.15,2013-01-01 09:47:00,
2013-01-01 04:48:00,69.1,57.7,30.07,SSE,154,0.0,8.0,67,0.00,,,0.00,Wunderground v.1.15,2013-01-01 09:48:00,
2013-01-01 04:49:00,69.1,57.7,30.07,SSE,154,0.0,8.0,67,0.00,,,0.00,Wunderground v.1.15,2013-01-01 09:49:00,
2013-01-01 04:52:00,69.1,57.7,30.07,SSE,154,0.0,8.0,67,0.00,,,0.00,Wunderground v.1.15,2013-01-01 09:52:00,
2013-01-01 04:54:00,69.1,57.7,30.07,SSE,154,0.0,8.0,67,0.00,,,0.00,Wunderground v.1.15,2013-01-01 09:54:00,
2013-01-01 04:57:00,69.3,57.9,30.07,SSE,154,0.0,8.0,67,0.00,,,0.00,Wunderground v.1.15,2013-01-01 09:57:00,
2013-01-01 05:01:00,69.4,58.0,30.07,SSE,154,0.0,8.0,67,0.00,,,0.00,Wunderground v.1.15,2013-01-01 10:01:00,
2013-01-01 05:02:00,69.4,58.0,30.07,SSE,162,0.0,8.0,67,0.00,,,0.00,Wunderground v.1.15,2013-01-01 10:02:00,
2013-01-01 05:03:00,69.6,58.2,30.07,SE,145,1.0,8.0,67,0.00,,,0.00,Wunderground v.1.15,2013-01-01 10:03:00,
2013-01-01 05:05:00,69.6,58.2,30.07,SE,144,1.0,8.0,67,0.00,,,0.00,Wunderground v.1.15,2013-01-01 10:05:00,
2013-01-01 05:06:00,69.8,58.3,30.07,SE,145,1.0,8.0,67,0.00,,,0.00,Wunderground v.1.15,2013-01-01 10:06:00,
2013-01-01 05:08:00,69.8,58.3,30.07,SSE,147,1.0,8.0,67,0.00,,,0.00,Wunderground v.1.15,2013-01-01 10:08:00,
2013-01-01 05:09:00,69.8,58.3,30.07,SSE,147,1.0,8.0,67,0.00,,,0.00,Wunderground v.1.15,2013-01-01 10:09:00,
2013-01-01 05:12:00,69.8,58.3,30.07,SSE,147,1.0,8.0,67,0.00,,,0.00,Wunderground v.1.15,2013-01-01 10:12:00,
2013-01-01 05:13:00,69.8,57.9,30.07,SSE,147,1.0,8.0,66,0.00,,,0.00,Wunderground v.1.15,2013-01-01 10:13:00,
2013-01-01 05:15:00,69.9,58.0,30.07,SSE,148,1.0,8.0,66,0.00,,,0.00,Wunderground v.1.15,2013-01-01 10:15:00,
2013-01-01 05:17:00,69.9,58.0,30.07,SSE,150,1.0,8.0,66,0.00,,,0.00,Wunderground v.1.15,2013-01-01 10:17:00,
2013-01-01 05:18:00,69.9,58.0,30.07,SSE,148,1.0,8.0,66,0.00,,,0.00,Wunderground v.1.15,2013-01-01 10:18:00,
2013-01-01 05:21:00,69.9,58.0,30.07,SSE,150,2.0,8.0,66,0.00,,,0.00,Wunderground v.1.15,2013-01-01 10:21:00,
2013-01-01 05:23:00,69.9,57.6,30.07,SSE,150,2.0,8.0,65,0.00,,,0.00,Wunderground v.1.15,2013-01-01 10:23:00,
2013-01-01 05:24:00,69.9,57.6,30.07,SE,144,2.0,8.0,65,0.00,,,0.00,Wunderground v.1.15,2013-01-01 10:24:00,
2013-01-01 05:25:00,69.9,57.6,30.07,SE,144,2.0,8.0,65,0.00,,,0.00,Wunderground v.1.15,2013-01-01 10:25:00,
2013-01-01 05:27:00,69.9,57.2,30.07,SSE,160,2.0,8.0,64,0.00,,,0.00,Wunderground v.1.15,2013-01-01 10:27:00,
2013-01-01 05:29:00,69.9,57.2,30.07,SSE,164,2.0,8.0,64,0.00,,,0.00,Wunderground v.1.15,2013-01-01 10:29:00,
2013-01-01 05:30:00,69.9,57.6,30.06,SSE,164,2.0,2.0,65,0.00,,,0.00,Wunderground v.1.15,2013-01-01 10:30:00,
2013-01-01 05:34:00,69.8,57.1,30.06,SSE,164,2.0,8.0,64,0.00,,,0.00,Wunderground v.1.15,2013-01-01 10:34:00,
2013-01-01 05:35:00,69.8,57.1,30.06,SSE,165,1.0,8.0,64,0.00,,,0.00,Wunderground v.1.15,2013-01-01 10:35:00,
2013-01-01 05:36:00,69.6,57.3,30.06,SSE,165,1.0,8.0,65,0.00,,,0.00,Wunderground v.1.15,2013-01-01 10:36:00,
2013-01-01 05:40:00,69.6,57.3,30.06,SSE,160,0.0,8.0,65,0.00,,,0.00,Wunderground v.1.15,2013-01-01 10:40:00,
2013-01-01 05:42:00,69.6,56.9,30.06,SSE,157,1.0,8.0,64,0.00,,,0.00,Wunderground v.1.15,2013-01-01 10:42:00,
2013-01-01 05:43:00,69.6,56.9,30.06,SSE,157,1.0,8.0,64,0.00,,,0.00,Wunderground v.1.15,2013-01-01 10:43:00,
2013-01-01 05:45:00,69.8,57.1,30.06,SSE,152,1.0,8.0,64,0.00,,,0.00,Wunderground v.1.15,2013-01-01 10:45:00,
2013-01-01 05:47:00,69.8,57.1,30.06,ESE,107,2.0,8.0,64,0.00,,,0.00,Wunderground v.1.15,2013-01-01 10:47:00,
2013-01-01 05:49:00,69.8,57.1,30.06,South,172,2.0,8.0,64,0.00,,,0.00,Wunderground v.1.15,2013-01-01 10:49:00,
2013-01-01 05:51:00,69.8,57.1,30.06,South,172,1.0,8.0,64,0.00,,,0.00,Wunderground v.1.15,2013-01-01 10:51:00,
2013-01-01 05:53:00,69.8,57.1,30.06,South,172,1.0,8.0,64,0.00,,,0.00,Wunderground v.1.15,2013-01-01 10:53:00,
2013-01-01 05:55:00,69.8,57.1,30.06,South,172,1.0,8.0,64,0.00,,,0.00,Wunderground v.1.15,2013-01-01 10:55:00,
2013-01-01 05:56:00,69.8,57.1,30.06,SE,134,1.0,8.0,64,0.00,,,0.00,Wunderground v.1.15,2013-01-01 10:56:00,
2013-01-01 05:59:00,69.9,57.2,30.06,SE,126,1.0,8.0,64,0.00,,,0.00,Wunderground v.1.15,2013-01-01 10:59:00,
2013-01-01 06:00:00,69.9,57.2,30.06,SE,126,1.0,1.0,64,0.00,,,0.00,Wunderground v.1.15,2013-01-01 11:00:00,
2013-01-01 06:01:00,69.9,57.2,30.06,SSE,150,1.0,2.0,64,0.00,,,0.00,Wunderground v.1.15,2013-01-01 11:01:00,
2013-01-01 06:02:00,69.9,57.2,30.06,SSE,152,1.0,8.0,64,0.00,,,0.00,Wunderground v.1.15,2013-01-01 11:02:00,
2013-01-01 06:07:00,70.1,57.4,30.06,SSE,157,2.0,8.0,64,0.00,,,0.00,Wunderground v.1.15,2013-01-01 11:07:00,
2013-01-01 06:08:00,70.1,57.4,30.06,SE,124,2.0,8.0,64,0.00,,,0.00,Wunderground v.1.15,2013-01-01 11:08:00,
2013-01-01 06:09:00,70.1,57.4,30.06,SSE,147,2.0,8.0,64,0.00,,,0.00,Wunderground v.1.15,2013-01-01 11:09:00,
2013-01-01 06:13:00,70.1,56.9,30.06,SE,141,2.0,8.0,63,0.00,,,0.00,Wunderground v.1.15,2013-01-01 11:13:00,
2013-01-01 06:14:00,70.1,57.4,30.06,SSE,158,2.0,8.0,64,0.00,,,0.00,Wunderground v.1.15,2013-01-01 11:14:00,
2013-01-01 06:15:00,70.1,56.9,30.07,SSE,160,2.0,8.0,63,0.00,,,0.00,Wunderground v.1.15,2013-01-01 11:15:00,
2013-01-01 06:20:00,70.1,57.4,30.07,SSE,158,2.0,8.0,64,0.00,,,0.00,Wunderground v.1.15,2013-01-01 11:20:00,
2013-01-01 06:21:00,70.1,57.4,30.07,SSE,158,1.0,8.0,64,0.00,,,0.00,Wunderground v.1.15,2013-01-01 11:21:00,
2013-01-01 06:22:00,70.1,56.9,30.07,SSE,158,2.0,8.0,63,0.00,,,0.00,Wunderground v.1.15,2013-01-01 11:22:00,
2013-01-01 06:25:00,70.1,56.9,30.07,SSE,158,1.0,8.0,63,0.00,,,0.00,Wunderground v.1.15,2013-01-01 11:25:00,
2013-01-01 06:27:00,69.9,57.2,30.07,SSE,158,1.0,8.0,64,0.00,,,0.00,Wunderground v.1.15,2013-01-01 11:27:00,
2013-01-01 06:28:00,69.9,57.2,30.07,SSE,160,1.0,8.0,64,0.00,,,0.00,Wunderground v.1.15,2013-01-01 11:28:00,
2013-01-01 06:31:00,69.9,57.2,30.06,SSE,161,1.0,8.0,64,0.00,,,0.00,Wunderground v.1.15,2013-01-01 11:31:00,
2013-01-01 06:35:00,69.9,56.7,30.06,SE,144,2.0,8.0,63,0.00,,,0.00,Wunderground v.1.15,2013-01-01 11:35:00,
2013-01-01 06:36:00,69.9,56.7,30.06,SE,145,2.0,8.0,63,0.00,,,0.00,Wunderground v.1.15,2013-01-01 11:36:00,
2013-01-01 06:37:00,69.9,56.7,30.06,SE,145,2.0,8.0,63,0.00,,,0.00,Wunderground v.1.15,2013-01-01 11:37:00,
2013-01-01 06:39:00,69.9,56.7,30.06,SSE,154,2.0,8.0,63,0.00,,,0.00,Wunderground v.1.15,2013-01-01 11:39:00,
2013-01-01 06:42:00,69.8,57.1,30.06,South,182,2.0,8.0,64,0.00,,,0.00,Wunderground v.1.15,2013-01-01 11:42:00,
2013-01-01 06:44:00,69.8,57.1,30.06,South,171,2.0,8.0,64,0.00,,,0.00,Wunderground v.1.15,2013-01-01 11:44:00,
2013-01-01 06:45:00,69.8,57.1,30.06,SSE,148,2.0,8.0,64,0.00,,,0.00,Wunderground v.1.15,2013-01-01 11:45:00,
2013-01-01 06:46:00,69.8,57.1,30.06,SSE,151,2.0,8.0,64,0.00,,,0.00,Wunderground v.1.15,2013-01-01 11:46:00,
2013-01-01 06:51:00,69.6,56.9,30.06,SE,145,2.0,8.0,64,0.00,,,0.00,Wunderground v.1.15,2013-01-01 11:51:00,
2013-01-01 06:52:00,69.6,56.9,30.06,SE,145,2.0,8.0,64,0.00,,,0.00,Wunderground v.1.15,2013-01-01 11:52:00,
2013-01-01 06:53:00,69.6,56.9,30.06,SSE,150,2.0,8.0,64,0.00,,,0.00,Wunderground v.1.15,2013-01-01 11:53:00,
2013-01-01 06:57:00,69.6,56.9,30.06,SSE,157,2.0,8.0,64,0.00,,,0.00,Wunderground v.1.15,2013-01-01 11:57:00,
2013-01-01 06:58:00,69.6,56.9,30.06,SSE,158,2.0,8.0,64,0.00,,,0.00,Wunderground v.1.15,2013-01-01 11:58:00,
2013-01-01 06:59:00,69.6,56.9,30.06,SSE,158,1.0,8.0,64,0.00,,,0.00,Wunderground v.1.15,2013-01-01 11:59:00,
2013-01-01 07:02:00,69.4,56.7,30.05,SSE,167,2.0,8.0,64,0.00,,,0.00,Wunderground v.1.15,2013-01-01 12:02:00,
2013-01-01 07:03:00,69.4,56.7,30.05,SSE,168,2.0,8.0,64,0.00,,,0.00,Wunderground v.1.15,2013-01-01 12:03:00,
2013-01-01 07:04:00,69.4,56.7,30.05,SSE,168,2.0,8.0,64,0.00,,,0.00,Wunderground v.1.15,2013-01-01 12:04:00,
2013-01-01 07:09:00,69.4,56.7,30.05,South,179,2.0,8.0,64,0.00,,,0.00,Wunderground v.1.15,2013-01-01 12:09:00,
2013-01-01 07:10:00,69.4,56.7,30.05,South,184,2.0,8.0,64,0.00,,,0.00,Wunderground v.1.15,2013-01-01 12:10:00,
2013-01-01 07:11:00,69.4,56.7,30.05,South,179,2.0,8.0,64,0.00,,,0.00,Wunderground v.1.15,2013-01-01 12:11:00,
2013-01-01 07:12:00,69.4,56.7,30.05,SSE,168,2.0,8.0,64,0.00,,,0.00,Wunderground v.1.15,2013-01-01 12:12:00,
2013-01-01 07:17:00,69.6,56.9,30.06,SSE,147,3.0,8.0,64,0.00,,,0.00,Wunderground v.1.15,2013-01-01 12:17:00,
2013-01-01 07:18:00,69.6,56.9,30.06,SSE,151,3.0,8.0,64,0.00,,,0.00,Wunderground v.1.15,2013-01-01 12:18:00,
2013-01-01 07:21:00,69.6,56.9,30.06,ESE,121,2.0,8.0,64,0.00,,,0.00,Wunderground v.1.15,2013-01-01 12:21:00,
2013-01-01 07:23:00,69.4,56.7,30.06,SE,124,2.0,8.0,64,0.00,,,0.00,Wunderground v.1.15,2013-01-01 12:23:00,
2013-01-01 07:25:00,69.4,56.7,30.06,SE,130,1.0,8.0,64,0.00,,,0.00,Wunderground v.1.15,2013-01-01 12:25:00,
2013-01-01 07:27:00,69.4,56.7,30.06,SE,141,1.0,8.0,64,0.00,,,0.00,Wunderground v.1.15,2013-01-01 12:27:00,
2013-01-01 07:28:00,69.4,56.7,30.06,SE,144,1.0,8.0,64,0.00,,,0.00,Wunderground v.1.15,2013-01-01 12:28:00,
2013-01-01 07:31:00,69.4,56.7,30.06,SE,144,2.0,8.0,64,0.00,,,0.00,Wunderground v.1.15,2013-01-01 12:31:00,
2013-01-01 07:32:00,69.4,56.7,30.06,SSE,158,2.0,8.0,64,0.00,,,0.00,Wunderground v.1.15,2013-01-01 12:32:00,
2013-01-01 07:34:00,69.6,56.9,30.06,SSE,152,2.0,8.0,64,0.00,,,0.00,Wunderground v.1.15,2013-01-01 12:34:00,
2013-01-01 07:37:00,69.4,56.7,30.06,SSE,152,2.0,8.0,64,0.00,,,0.00,Wunderground v.1.15,2013-01-01 12:37:00,
2013-01-01 07:38:00,69.4,56.7,30.06,SSE,152,2.0,8.0,64,0.00,,,0.00,Wunderground v.1.15,2013-01-01 12:38:00,
2013-01-01 07:39:00,69.4,56.7,30.06,SSE,152,2.0,8.0,64,0.00,,,0.00,Wunderground v.1.15,2013-01-01 12:39:00,
2013-01-01 07:40:00,69.4,56.7,30.06,SSE,152,2.0,2.0,64,0.00,,,0.00,Wunderground v.1.15,2013-01-01 12:40:00,
2013-01-01 07:43:00,69.3,57.0,30.06,SSE,152,1.0,8.0,65,0.00,,,0.00,Wunderground v.1.15,2013-01-01 12:43:00,
2013-01-01 07:44:00,69.3,57.0,30.06,SSE,152,1.0,8.0,65,0.00,,,0.00,Wunderground v.1.15,2013-01-01 12:44:00,
2013-01-01 07:45:00,69.3,57.0,30.06,SSE,152,1.0,8.0,65,0.00,,,0.00,Wunderground v.1.15,2013-01-01 12:45:00,
2013-01-01 07:47:00,69.3,57.0,30.06,SSE,154,1.0,8.0,65,0.00,,,0.00,Wunderground v.1.15,2013-01-01 12:47:00,
2013-01-01 07:51:00,69.3,57.0,30.06,SSE,154,0.0,8.0,65,0.00,,,0.00,Wunderground v.1.15,2013-01-01 12:51:00,
2013-01-01 07:52:00,69.3,57.0,30.06,SSE,154,0.0,8.0,65,0.00,,,0.00,Wunderground v.1.15,2013-01-01 12:52:00,
2013-01-01 07:55:00,69.3,57.0,30.06,SSE,154,0.0,8.0,65,0.00,,,0.00,Wunderground v.1.15,2013-01-01 12:55:00,
2013-01-01 07:56:00,69.3,57.0,30.06,SSE,154,0.0,8.0,65,0.00,,,0.00,Wunderground v.1.15,2013-01-01 12:56:00,
2013-01-01 08:00:00,69.3,57.5,30.07,SSE,154,0.0,8.0,66,0.00,,,0.00,Wunderground v.1.15,2013-01-01 13:00:00,
2013-01-01 08:01:00,69.3,57.5,30.07,SSE,154,0.0,8.0,66,0.00,,,0.00,Wunderground v.1.15,2013-01-01 13:01:00,
2013-01-01 08:02:00,69.3,57.5,30.07,SSE,154,0.0,8.0,66,0.00,,,0.00,Wunderground v.1.15,2013-01-01 13:02:00,
2013-01-01 08:04:00,69.3,57.5,30.07,SSE,154,0.0,8.0,66,0.00,,,0.00,Wunderground v.1.15,2013-01-01 13:04:00,
2013-01-01 08:06:00,69.3,57.5,30.07,SSE,154,0.0,8.0,66,0.00,,,0.00,Wunderground v.1.15,2013-01-01 13:06:00,
2013-01-01 08:07:00,69.3,57.5,30.07,SSE,154,0.0,8.0,66,0.00,,,0.00,Wunderground v.1.15,2013-01-01 13:07:00,
2013-01-01 08:08:00,69.3,57.5,30.07,SSE,154,0.0,8.0,66,0.00,,,0.00,Wunderground v.1.15,2013-01-01 13:08:00,
2013-01-01 08:10:00,69.4,57.5,30.07,SSE,154,0.0,8.0,66,0.00,,,0.00,Wunderground v.1.15,2013-01-01 13:10:00,
2013-01-01 08:12:00,69.4,57.5,30.07,SSE,154,0.0,8.0,66,0.00,,,0.00,Wunderground v.1.15,2013-01-01 13:12:00,
2013-01-01 08:13:00,69.6,57.7,30.07,SSE,154,0.0,8.0,66,0.00,,,0.00,Wunderground v.1.15,2013-01-01 13:13:00,
2013-01-01 08:14:00,69.6,57.7,30.07,SSE,154,0.0,8.0,66,0.00,,,0.00,Wunderground v.1.15,2013-01-01 13:14:00,
2013-01-01 08:18:00,69.9,57.6,30.07,SSE,154,0.0,8.0,65,0.00,,,0.00,Wunderground v.1.15,2013-01-01 13:18:00,
2013-01-01 08:19:00,69.9,58.0,30.07,SSE,154,0.0,8.0,66,0.00,,,0.00,Wunderground v.1.15,2013-01-01 13:19:00,
2013-01-01 08:21:00,70.1,57.8,30.07,SSE,154,0.0,8.0,65,0.00,,,0.00,Wunderground v.1.15,2013-01-01 13:21:00,
2013-01-01 08:22:00,70.3,58.0,30.07,SSE,154,0.0,8.0,65,0.00,,,0.00,Wunderground v.1.15,2013-01-01 13:22:00,
2013-01-01 08:25:00,70.4,58.1,30.07,SSE,154,0.0,8.0,65,0.00,,,0.00,Wunderground v.1.15,2013-01-01 13:25:00,
2013-01-01 08:27:00,70.6,58.3,30.07,SSE,154,0.0,8.0,65,0.00,,,0.00,Wunderground v.1.15,2013-01-01 13:27:00,
2013-01-01 08:30:00,71.1,58.3,30.07,SSE,154,0.0,8.0,64,0.00,,,0.00,Wunderground v.1.15,2013-01-01 13:30:00,
2013-01-01 08:31:00,71.5,58.7,30.07,SSE,154,0.0,8.0,64,0.00,,,0.00,Wunderground v.1.15,2013-01-01 13:31:00,
2013-01-01 08:36:00,72.1,58.8,30.07,SSE,154,0.0,8.0,63,0.00,,,0.00,Wunderground v.1.15,2013-01-01 13:36:00,
2013-01-01 08:37:00,72.1,58.8,30.07,SSE,154,0.0,8.0,63,0.00,,,0.00,Wunderground v.1.15,2013-01-01 13:37:00,
2013-01-01 08:38:00,72.1,58.8,30.07,SSE,154,0.0,8.0,63,0.00,,,0.00,Wunderground v.1.15,2013-01-01 13:38:00,
2013-01-01 08:42:00,72.1,58.8,30.07,SSE,167,0.0,8.0,63,0.00,,,0.00,Wunderground v.1.15,2013-01-01 13:42:00,
2013-01-01 08:43:00,72.1,58.8,30.07,SSE,167,0.0,8.0,63,0.00,,,0.00,Wunderground v.1.15,2013-01-01 13:43:00,
2013-01-01 08:44:00,72.1,58.8,30.07,SSE,167,0.0,8.0,63,0.00,,,0.00,Wunderground v.1.15,2013-01-01 13:44:00,
2013-01-01 08:45:00,72.1,59.2,30.07,SSE,167,0.0,8.0,64,0.00,,,0.00,Wunderground v.1.15,2013-01-01 13:45:00,
2013-01-01 08:50:00,72.1,59.2,30.07,SSE,167,0.0,8.0,64,0.00,,,0.00,Wunderground v.1.15,2013-01-01 13:50:00,
2013-01-01 08:51:00,72.1,59.2,30.07,SSE,167,0.0,8.0,64,0.00,,,0.00,Wunderground v.1.15,2013-01-01 13:51:00,
2013-01-01 08:53:00,72.3,59.4,30.07,South,171,1.0,8.0,64,0.00,,,0.00,Wunderground v.1.15,2013-01-01 13:53:00,
2013-01-01 08:54:00,72.3,59.4,30.07,South,171,1.0,8.0,64,0.00,,,0.00,Wunderground v.1.15,2013-01-01 13:54:00,
2013-01-01 08:55:00,72.3,59.4,30.07,South,171,1.0,8.0,64,0.00,,,0.00,Wunderground v.1.15,2013-01-01 13:55:00,
2013-01-01 08:56:00,72.5,59.6,30.07,SE,127,1.0,8.0,64,0.00,,,0.00,Wunderground v.1.15,2013-01-01 13:56:00,
2013-01-01 09:00:00,72.7,59.8,30.08,South,175,2.0,8.0,64,0.00,,,0.00,Wunderground v.1.15,2013-01-01 14:00:00,
2013-01-01 09:01:00,72.7,59.8,30.08,South,175,2.0,8.0,64,0.00,,,0.00,Wunderground v.1.15,2013-01-01 14:01:00,
2013-01-01 09:05:00,73.0,60.1,30.08,SSE,150,2.0,10.0,64,0.00,,,0.00,Wunderground v.1.15,2013-01-01 14:05:00,
2013-01-01 09:06:00,73.2,60.3,30.08,SSE,157,3.0,10.0,64,0.00,,,0.00,Wunderground v.1.15,2013-01-01 14:06:00,
2013-01-01 09:07:00,73.2,59.8,30.08,South,171,3.0,10.0,63,0.00,,,0.00,Wunderground v.1.15,2013-01-01 14:07:00,
2013-01-01 09:09:00,73.3,59.9,30.08,South,169,3.0,10.0,63,0.00,,,0.00,Wunderground v.1.15,2013-01-01 14:09:00,
2013-01-01 09:11:00,73.3,60.4,30.08,SSE,168,4.0,8.0,64,0.00,,,0.00,Wunderground v.1.15,2013-01-01 14:11:00,
2013-01-01 09:13:00,73.3,60.4,30.08,SSE,168,4.0,8.0,64,0.00,,,0.00,Wunderground v.1.15,2013-01-01 14:13:00,
2013-01-01 09:16:00,73.3,60.4,30.08,SSE,155,3.0,8.0,64,0.00,,,0.00,Wunderground v.1.15,2013-01-01 14:16:00,
2013-01-01 09:17:00,73.3,60.4,30.08,SSE,164,3.0,8.0,64,0.00,,,0.00,Wunderground v.1.15,2013-01-01 14:17:00,
2013-01-01 09:19:00,73.3,60.4,30.08,SSE,168,3.0,8.0,64,0.00,,,0.00,Wunderground v.1.15,2013-01-01 14:19:00,
2013-01-01 09:22:00,73.3,60.4,30.08,SSE,147,4.0,8.0,64,0.00,,,0.00,Wunderground v.1.15,2013-01-01 14:22:00,
2013-01-01 09:23:00,73.3,60.4,30.08,SSW,192,4.0,8.0,64,0.00,,,0.00,Wunderground v.1.15,2013-01-01 14:23:00,
2013-01-01 09:24:00,73.3,60.4,30.08,SE,143,4.0,8.0,64,0.00,,,0.00,Wunderground v.1.15,2013-01-01 14:24:00,
2013-01-01 09:26:00,73.5,60.6,30.08,SSE,162,4.0,8.0,64,0.00,,,0.00,Wunderground v.1.15,2013-01-01 14:26:00,
2013-01-01 09:27:00,73.5,60.6,30.08,SSE,161,4.0,8.0,64,0.00,,,0.00,Wunderground v.1.15,2013-01-01 14:27:00,
2013-01-01 09:30:00,73.7,60.8,30.08,South,172,3.0,3.0,64,0.00,,,0.00,Wunderground v.1.15,2013-01-01 14:30:00,
2013-01-01 09:32:00,73.7,60.8,30.08,SSE,154,3.0,8.0,64,0.00,,,0.00,Wunderground v.1.15,2013-01-01 14:32:00,
2013-01-01 09:33:00,73.7,60.3,30.08,SSE,167,3.0,8.0,63,0.00,,,0.00,Wunderground v.1.15,2013-01-01 14:33:00,
2013-01-01 09:37:00,74.0,60.2,30.08,SSW,193,4.0,8.0,62,0.00,,,0.00,Wunderground v.1.15,2013-01-01 14:37:00,
2013-01-01 09:39:00,74.4,60.5,30.08,SW,216,4.0,8.0,62,0.00,,,0.00,Wunderground v.1.15,2013-01-01 14:39:00,
2013-01-01 09:43:00,74.4,59.6,30.08,SSE,148,5.0,8.0,60,0.00,,,0.00,Wunderground v.1.15,2013-01-01 14:43:00,
2013-01-01 09:44:00,74.6,59.8,30.08,SSW,203,5.0,8.0,60,0.00,,,0.00,Wunderground v.1.15,2013-01-01 14:44:00,
2013-01-01 09:46:00,74.6,59.8,30.08,SSE,161,4.0,8.0,60,0.00,,,0.00,Wunderground v.1.15,2013-01-01 14:46:00,
2013-01-01 09:47:00,74.7,59.9,30.08,South,191,4.0,8.0,60,0.00,,,0.00,Wunderground v.1.15,2013-01-01 14:47:00,
2013-01-01 09:49:00,74.7,58.9,30.08,South,189,5.0,8.0,58,0.00,,,0.00,Wunderground v.1.15,2013-01-01 14:49:00,
2013-01-01 09:51:00,74.9,59.1,30.08,SSW,195,5.0,8.0,58,0.00,,,0.00,Wunderground v.1.15,2013-01-01 14:51:00,
2013-01-01 09:52:00,75.1,59.3,30.08,SSE,147,5.0,8.0,58,0.00,,,0.00,Wunderground v.1.15,2013-01-01 14:52:00,
2013-01-01 09:57:00,75.4,58.6,30.08,South,184,5.0,8.0,56,0.00,,,0.00,Wunderground v.1.15,2013-01-01 14:57:00,
2013-01-01 09:58:00,75.3,58.5,30.08,South,186,5.0,8.0,56,0.00,,,0.00,Wunderground v.1.15,2013-01-01 14:58:00,
2013-01-01 09:59:00,75.1,57.8,30.08,SSW,209,5.0,9.0,55,0.00,,,0.00,Wunderground v.1.15,2013-01-01 14:59:00,
2013-01-01 10:00:00,75.1,57.8,30.08,SSW,202,6.0,11.0,55,0.00,,,0.00,Wunderground v.1.15,2013-01-01 15:00:00,
2013-01-01 10:05:00,75.3,58.5,30.08,SW,222,6.0,11.0,56,0.00,,,0.00,Wunderground v.1.15,2013-01-01 15:05:00,
2013-01-01 10:07:00,75.4,58.1,30.08,SSW,203,7.0,11.0,55,0.00,,,0.00,Wunderground v.1.15,2013-01-01 15:07:00,
2013-01-01 10:08:00,75.4,58.1,30.08,SSE,161,6.0,11.0,55,0.00,,,0.00,Wunderground v.1.15,2013-01-01 15:08:00,
2013-01-01 10:11:00,75.4,58.1,30.08,SSE,161,6.0,8.0,55,0.00,,,0.00,Wunderground v.1.15,2013-01-01 15:11:00,
2013-01-01 10:13:00,75.4,58.1,30.08,South,184,5.0,8.0,55,0.00,,,0.00,Wunderground v.1.15,2013-01-01 15:13:00,
2013-01-01 10:15:00,75.8,58.5,30.08,SSE,148,5.0,8.0,55,0.00,,,0.00,Wunderground v.1.15,2013-01-01 15:15:00,
2013-01-01 10:17:00,76.0,58.7,30.08,SSE,160,4.0,8.0,55,0.00,,,0.00,Wunderground v.1.15,2013-01-01 15:17:00,
2013-01-01 10:19:00,76.1,58.8,30.08,SSE,162,4.0,8.0,55,0.00,,,0.00,Wunderground v.1.15,2013-01-01 15:19:00,
2013-01-01 10:21:00,76.5,58.6,30.08,SSW,208,3.0,7.0,54,0.00,,,0.00,Wunderground v.1.15,2013-01-01 15:21:00,
2013-01-01 10:22:00,76.5,58.6,30.08,SW,217,4.0,10.0,54,0.00,,,0.00,Wunderground v.1.15,2013-01-01 15:22:00,
2013-01-01 10:24:00,76.3,58.4,30.08,South,186,4.0,10.0,54,0.00,,,0.00,Wunderground v.1.15,2013-01-01 15:24:00,
2013-01-01 10:28:00,76.0,58.7,30.08,SSW,198,5.0,10.0,55,0.00,,,0.00,Wunderground v.1.15,2013-01-01 15:28:00,
2013-01-01 10:29:00,76.0,58.7,30.08,ESE,123,5.0,10.0,55,0.00,,,0.00,Wunderground v.1.15,2013-01-01 15:29:00,
2013-01-01 10:30:00,76.1,58.8,30.08,SSE,161,5.0,5.0,55,0.00,,,0.00,Wunderground v.1.15,2013-01-01 15:30:00,
2013-01-01 10:32:00,76.5,59.1,30.08,SSE,157,5.0,8.0,55,0.00,,,0.00,Wunderground v.1.15,2013-01-01 15:32:00,
2013-01-01 10:35:00,76.7,58.8,30.08,SSW,198,5.0,8.0,54,0.00,,,0.00,Wunderground v.1.15,2013-01-01 15:35:00,
2013-01-01 10:36:00,76.7,58.8,30.08,SSE,165,5.0,8.0,54,0.00,,,0.00,Wunderground v.1.15,2013-01-01 15:36:00,
2013-01-01 10:38:00,77.0,59.1,30.08,SSE,148,4.0,8.0,54,0.00,,,0.00,Wunderground v.1.15,2013-01-01 15:38:00,
2013-01-01 10:43:00,77.0,59.1,30.08,South,181,4.0,10.0,54,0.00,,,0.00,Wunderground v.1.15,2013-01-01 15:43:00,
2013-01-01 10:44:00,77.0,59.1,30.08,SSE,164,4.0,10.0,54,0.00,,,0.00,Wunderground v.1.15,2013-01-01 15:44:00,
2013-01-01 10:45:00,76.8,58.9,30.07,South,191,4.0,10.0,54,0.00,,,0.00,Wunderground v.1.15,2013-01-01 15:45:00,
2013-01-01 10:49:00,76.3,58.4,30.07,South,186,6.0,10.0,54,0.00,,,0.00,Wunderground v.1.15,2013-01-01 15:49:00,
2013-01-01 10:52:00,76.3,58.4,30.07,ESE,120,7.0,13.0,54,0.00,,,0.00,Wunderground v.1.15,2013-01-01 15:52:00,
2013-01-01 10:53:00,76.5,58.6,30.07,South,175,7.0,13.0,54,0.00,,,0.00,Wunderground v.1.15,2013-01-01 15:53:00,
2013-01-01 10:55:00,76.7,58.8,30.07,SSE,164,7.0,13.0,54,0.00,,,0.00,Wunderground v.1.15,2013-01-01 15:55:00,
2013-01-01 10:58:00,76.7,58.8,30.07,SSE,157,7.0,13.0,54,0.00,,,0.00,Wunderground v.1.15,2013-01-01 15:58:00,
2013-01-01 10:59:00,76.7,58.3,30.07,SSE,155,7.0,13.0,53,0.00,,,0.00,Wunderground v.1.15,2013-01-01 15:59:00,
2013-01-01 11:01:00,76.8,58.4,30.06,SE,127,7.0,9.0,53,0.00,,,0.00,Wunderground v.1.15,2013-01-01 16:01:00,
2013-01-01 11:03:00,76.8,58.4,30.06,South,178,8.0,9.0,53,0.00,,,0.00,Wunderground v.1.15,2013-01-01 16:03:00,
2013-01-01 11:04:00,77.0,58.6,30.06,WSW,257,8.0,9.0,53,0.00,,,0.00,Wunderground v.1.15,2013-01-01 16:04:00,
2013-01-01 11:06:00,77.0,58.0,30.06,South,182,8.0,9.0,52,0.00,,,0.00,Wunderground v.1.15,2013-01-01 16:06:00,
2013-01-01 11:08:00,77.2,58.7,30.06,South,191,7.0,9.0,53,0.00,,,0.00,Wunderground v.1.15,2013-01-01 16:08:00,
2013-01-01 11:13:00,77.2,59.3,30.06,SE,143,7.0,12.0,54,0.00,,,0.00,Wunderground v.1.15,2013-01-01 16:13:00,
2013-01-01 11:14:00,77.0,59.6,30.06,ESE,117,7.0,12.0,55,0.00,,,0.00,Wunderground v.1.15,2013-01-01 16:14:00,
2013-01-01 11:17:00,76.5,60.1,30.06,South,171,7.0,12.0,57,0.00,,,0.00,Wunderground v.1.15,2013-01-01 16:17:00,
2013-01-01 11:18:00,76.5,60.1,30.06,SSW,192,8.0,12.0,57,0.00,,,0.00,Wunderground v.1.15,2013-01-01 16:18:00,
2013-01-01 11:23:00,77.0,60.6,30.06,South,189,7.0,10.0,57,0.00,,,0.00,Wunderground v.1.15,2013-01-01 16:23:00,
2013-01-01 11:24:00,77.0,60.1,30.06,SSW,192,7.0,10.0,56,0.00,,,0.00,Wunderground v.1.15,2013-01-01 16:24:00,
2013-01-01 11:27:00,77.2,60.3,30.06,SSE,148,6.0,10.0,56,0.00,,,0.00,Wunderground v.1.15,2013-01-01 16:27:00,
2013-01-01 11:29:00,77.4,60.0,30.06,SSE,157,6.0,10.0,55,0.00,,,0.00,Wunderground v.1.15,2013-01-01 16:29:00,
2013-01-01 11:30:00,77.6,59.6,30.06,South,188,6.0,8.0,54,0.00,,,0.00,Wunderground v.1.15,2013-01-01 16:30:00,
2013-01-01 11:33:00,77.9,59.9,30.06,SE,144,5.0,9.0,54,0.00,,,0.00,Wunderground v.1.15,2013-01-01 16:33:00,
2013-01-01 11:34:00,78.1,59.6,30.06,South,171,5.0,9.0,53,0.00,,,0.00,Wunderground v.1.15,2013-01-01 16:34:00,
2013-01-01 11:35:00,78.1,60.1,30.06,SSW,209,5.0,9.0,54,0.00,,,0.00,Wunderground v.1.15,2013-01-01 16:35:00,
2013-01-01 11:37:00,78.5,59.4,30.06,South,188,5.0,9.0,52,0.00,,,0.00,Wunderground v.1.15,2013-01-01 16:37:00,
2013-01-01 11:41:00,78.3,59.8,30.06,SSW,196,6.0,8.0,53,0.00,,,0.00,Wunderground v.1.15,2013-01-01 16:41:00,
2013-01-01 11:42:00,78.3,59.8,30.06,SSW,195,6.0,8.0,53,0.00,,,0.00,Wunderground v.1.15,2013-01-01 16:42:00,
2013-01-01 11:43:00,78.3,59.8,30.06,SSE,154,6.0,8.0,53,0.00,,,0.00,Wunderground v.1.15,2013-01-01 16:43:00,
2013-01-01 11:47:00,77.7,59.2,30.05,SSE,154,6.0,9.0,53,0.00,,,0.00,Wunderground v.1.15,2013-01-01 16:47:00,
2013-01-01 11:48:00,77.7,59.7,30.05,SSE,167,6.0,9.0,54,0.00,,,0.00,Wunderground v.1.15,2013-01-01 16:48:00,
2013-01-01 11:49:00,77.7,59.7,30.05,SSW,196,6.0,9.0,54,0.00,,,0.00,Wunderground v.1.15,2013-01-01 16:49:00,
2013-01-01 11:53:00,77.7,59.2,30.05,South,172,6.0,10.0,53,0.00,,,0.00,Wunderground v.1.15,2013-01-01 16:53:00,
2013-01-01 11:54:00,77.7,58.7,30.05,SSE,161,6.0,10.0,52,0.00,,,0.00,Wunderground v.1.15,2013-01-01 16:54:00,
2013-01-01 11:56:00,77.7,58.7,30.05,South,174,6.0,10.0,52,0.00,,,0.00,Wunderground v.1.15,2013-01-01 16:56:00,
2013-01-01 11:58:00,77.9,58.9,30.05,South,172,6.0,10.0,52,0.00,,,0.00,Wunderground v.1.15,2013-01-01 16:58:00,
2013-01-01 12:00:00,77.7,58.7,30.04,SSW,206,7.0,7.0,52,0.00,,,0.00,Wunderground v.1.15,2013-01-01 17:00:00,
2013-01-01 12:01:00,77.9,59.4,30.04,SSW,195,7.0,8.0,53,0.00,,,0.00,Wunderground v.1.15,2013-01-01 17:01:00,
2013-01-01 12:02:00,78.1,59.0,30.04,SSE,152,7.0,8.0,52,0.00,,,0.00,Wunderground v.1.15,2013-01-01 17:02:00,
2013-01-01 12:03:00,78.1,58.5,30.04,SSE,165,6.0,8.0,51,0.00,,,0.00,Wunderground v.1.15,2013-01-01 17:03:00,
2013-01-01 12:07:00,78.5,59.4,30.04,South,174,7.0,13.0,52,0.00,,,0.00,Wunderground v.1.15,2013-01-01 17:07:00,
2013-01-01 12:08:00,78.5,58.9,30.04,South,184,6.0,13.0,51,0.00,,,0.00,Wunderground v.1.15,2013-01-01 17:08:00,
2013-01-01 12:09:00,78.5,58.9,30.04,SSE,155,6.0,13.0,51,0.00,,,0.00,Wunderground v.1.15,2013-01-01 17:09:00,
2013-01-01 12:10:00,78.5,58.3,30.04,ESE,116,6.0,8.0,50,0.00,,,0.00,Wunderground v.1.15,2013-01-01 17:10:00,
2013-01-01 12:16:00,78.6,59.5,30.03,South,169,6.0,10.0,52,0.00,,,0.00,Wunderground v.1.15,2013-01-01 17:16:00,
2013-01-01 12:17:00,78.8,59.7,30.03,SSE,154,6.0,10.0,52,0.00,,,0.00,Wunderground v.1.15,2013-01-01 17:17:00,
2013-01-01 12:18:00,78.8,58.6,30.03,SSE,154,6.0,10.0,50,0.00,,,0.00,Wunderground v.1.15,2013-01-01 17:18:00,
2013-01-01 12:21:00,78.8,59.1,30.03,SSW,193,5.0,8.0,51,0.00,,,0.00,Wunderground v.1.15,2013-01-01 17:21:00,
2013-01-01 12:23:00,78.8,59.1,30.03,SSW,200,5.0,12.0,51,0.00,,,0.00,Wunderground v.1.15,2013-01-01 17:23:00,
2013-01-01 12:24:00,78.8,59.1,30.03,South,178,5.0,12.0,51,0.00,,,0.00,Wunderground v.1.15,2013-01-01 17:24:00,
2013-01-01 12:27:00,78.6,59.0,30.03,South,174,6.0,13.0,51,0.00,,,0.00,Wunderground v.1.15,2013-01-01 17:27:00,
2013-01-01 12:29:00,78.5,59.4,30.03,East,100,6.0,13.0,52,0.00,,,0.00,Wunderground v.1.15,2013-01-01 17:29:00,
2013-01-01 12:30:00,78.6,59.5,30.02,SSW,193,6.0,8.0,52,0.00,,,0.00,Wunderground v.1.15,2013-01-01 17:30:00,
2013-01-01 12:33:00,78.6,59.0,30.02,SSW,192,6.0,10.0,51,0.00,,,0.00,Wunderground v.1.15,2013-01-01 17:33:00,
2013-01-01 12:37:00,78.1,59.0,30.02,SSE,160,7.0,11.0,52,0.00,,,0.00,Wunderground v.1.15,2013-01-01 17:37:00,
2013-01-01 12:38:00,78.1,59.6,30.02,South,169,6.0,11.0,53,0.00,,,0.00,Wunderground v.1.15,2013-01-01 17:38:00,
2013-01-01 12:39:00,78.3,59.2,30.02,SSW,192,7.0,11.0,52,0.00,,,0.00,Wunderground v.1.15,2013-01-01 17:39:00,
2013-01-01 12:43:00,78.6,59.0,30.02,SSE,150,7.0,11.0,51,0.00,,,0.00,Wunderground v.1.15,2013-01-01 17:43:00,
2013-01-01 12:44:00,78.6,59.5,30.02,SSW,199,7.0,11.0,52,0.00,,,0.00,Wunderground v.1.15,2013-01-01 17:44:00,
2013-01-01 12:45:00,78.6,59.5,30.01,SSE,155,7.0,11.0,52,0.00,,,0.00,Wunderground v.1.15,2013-01-01 17:45:00,
2013-01-01 12:46:00,78.5,58.9,30.01,SW,223,7.0,11.0,51,0.00,,,0.00,Wunderground v.1.15,2013-01-01 17:46:00,
2013-01-01 12:50:00,78.6,59.5,30.01,SE,145,7.0,7.0,52,0.00,,,0.00,Wunderground v.1.15,2013-01-01 17:50:00,
2013-01-01 12:51:00,78.8,59.1,30.01,South,169,7.0,16.0,51,0.00,,,0.00,Wunderground v.1.15,2013-01-01 17:51:00,
2013-01-01 12:54:00,78.5,59.4,30.01,SSE,161,7.0,16.0,52,0.00,,,0.00,Wunderground v.1.15,2013-01-01 17:54:00,
2013-01-01 12:56:00,78.5,59.9,30.01,South,188,6.0,16.0,53,0.00,,,0.00,Wunderground v.1.15,2013-01-01 17:56:00,
2013-01-01 12:58:00,78.6,60.0,30.01,SSE,162,6.0,16.0,53,0.00,,,0.00,Wunderground v.1.15,2013-01-01 17:58:00,
2013-01-01 12:59:00,78.8,60.2,30.01,SSE,160,6.0,16.0,53,0.00,,,0.00,Wunderground v.1.15,2013-01-01 17:59:00,
2013-01-01 13:00:00,79.0,59.9,30.00,ESE,109,6.0,16.0,52,0.00,,,0.00,Wunderground v.1.15,2013-01-01 18:00:00,
2013-01-01 13:03:00,78.8,59.7,30.00,SSW,206,6.0,16.0,52,0.00,,,0.00,Wunderground v.1.15,2013-01-01 18:03:00,
2013-01-01 13:04:00,78.8,59.7,30.00,SSW,209,6.0,16.0,52,0.00,,,0.00,Wunderground v.1.15,2013-01-01 18:04:00,
2013-01-01 13:07:00,78.3,59.2,30.00,SSE,165,6.0,16.0,52,0.00,,,0.00,Wunderground v.1.15,2013-01-01 18:07:00,
2013-01-01 13:09:00,78.1,59.6,30.00,SSE,161,7.0,16.0,53,0.00,,,0.00,Wunderground v.1.15,2013-01-01 18:09:00,
2013-01-01 13:10:00,78.1,60.1,30.00,South,171,7.0,8.0,54,0.00,,,0.00,Wunderground v.1.15,2013-01-01 18:10:00,
2013-01-01 13:11:00,78.1,60.1,30.00,South,171,6.0,9.0,54,0.00,,,0.00,Wunderground v.1.15,2013-01-01 18:11:00,
2013-01-01 13:16:00,77.7,59.7,29.99,SSE,167,6.0,10.0,54,0.00,,,0.00,Wunderground v.1.15,2013-01-01 18:16:00,
2013-01-01 13:17:00,77.9,59.4,29.99,SE,138,6.0,10.0,53,0.00,,,0.00,Wunderground v.1.15,2013-01-01 18:17:00,
2013-01-01 13:18:00,77.9,59.4,29.99,SSE,155,6.0,10.0,53,0.00,,,0.00,Wunderground v.1.15,2013-01-01 18:18:00,
2013-01-01 13:19:00,78.1,60.1,29.99,South,178,6.0,10.0,54,0.00,,,0.00,Wunderground v.1.15,2013-01-01 18:19:00,
2013-01-01 13:23:00,78.3,59.8,29.99,WSW,239,6.0,12.0,53,0.00,,,0.00,Wunderground v.1.15,2013-01-01 18:23:00,
2013-01-01 13:24:00,78.1,59.6,29.99,SSE,164,7.0,13.0,53,0.00,,,0.00,Wunderground v.1.15,2013-01-01 18:24:00,
2013-01-01 13:25:00,77.9,59.4,29.99,SSW,205,7.0,13.0,53,0.00,,,0.00,Wunderground v.1.15,2013-01-01 18:25:00,
2013-01-01 13:27:00,77.9,59.9,29.99,South,179,7.0,13.0,54,0.00,,,0.00,Wunderground v.1.15,2013-01-01 18:27:00,
2013-01-01 13:29:00,78.1,60.1,29.99,SSW,196,7.0,13.0,54,0.00,,,0.00,Wunderground v.1.15,2013-01-01 18:29:00,
2013-01-01 13:32:00,78.3,59.8,29.99,SSE,152,6.0,8.0,53,0.00,,,0.00,Wunderground v.1.15,2013-01-01 18:32:00,
2013-01-01 13:34:00,78.3,59.8,29.99,South,175,5.0,8.0,53,0.00,,,0.00,Wunderground v.1.15,2013-01-01 18:34:00,
2013-01-01 13:35:00,78.5,59.9,29.99,South,172,4.0,8.0,53,0.00,,,0.00,Wunderground v.1.15,2013-01-01 18:35:00,
2013-01-01 13:36:00,78.6,60.0,29.99,SSE,157,4.0,8.0,53,0.00,,,0.00,Wunderground v.1.15,2013-01-01 18:36:00,
2013-01-01 13:39:00,78.6,59.5,29.99,SSW,199,5.0,8.0,52,0.00,,,0.00,Wunderground v.1.15,2013-01-01 18:39:00,
2013-01-01 13:40:00,78.5,59.4,29.99,SSW,210,5.0,8.0,52,0.00,,,0.00,Wunderground v.1.15,2013-01-01 18:40:00,
2013-01-01 13:42:00,78.1,59.6,29.99,SSW,202,5.0,8.0,53,0.00,,,0.00,Wunderground v.1.15,2013-01-01 18:42:00,
2013-01-01 13:43:00,78.1,60.1,29.99,SSE,155,5.0,8.0,54,0.00,,,0.00,Wunderground v.1.15,2013-01-01 18:43:00,
2013-01-01 13:45:00,78.3,59.8,29.99,South,184,5.0,8.0,53,0.00,,,0.00,Wunderground v.1.15,2013-01-01 18:45:00,
2013-01-01 13:49:00,78.6,60.0,29.99,SW,215,5.0,8.0,53,0.00,,,0.00,Wunderground v.1.15,2013-01-01 18:49:00,
2013-01-01 13:50:00,78.6,60.0,29.99,SSE,155,5.0,5.0,53,0.00,,,0.00,Wunderground v.1.15,2013-01-01 18:50:00,
2013-01-01 13:52:00,78.6,60.0,29.99,South,169,4.0,8.0,53,0.00,,,0.00,Wunderground v.1.15,2013-01-01 18:52:00,
2013-01-01 13:54:00,78.5,59.4,29.99,SW,216,5.0,10.0,52,0.00,,,0.00,Wunderground v.1.15,2013-01-01 18:54:00,
2013-01-01 13:55:00,78.3,59.2,29.99,SE,136,5.0,10.0,52,0.00,,,0.00,Wunderground v.1.15,2013-01-01 18:55:00,
2013-01-01 13:57:00,78.3,59.8,29.99,South,175,5.0,11.0,53,0.00,,,0.00,Wunderground v.1.15,2013-01-01 18:57:00,
2013-01-01 14:00:00,78.3,59.8,29.99,SE,138,5.0,5.0,53,0.00,,,0.00,Wunderground v.1.15,2013-01-01 19:00:00,
2013-01-01 14:02:00,78.6,59.0,29.98,SSW,208,6.0,11.0,51,0.00,,,0.00,Wunderground v.1.15,2013-01-01 19:02:00,
2013-01-01 14:03:00,78.5,59.4,29.98,SSE,151,6.0,11.0,52,0.00,,,0.00,Wunderground v.1.15,2013-01-01 19:03:00,
2013-01-01 14:05:00,78.6,59.5,29.98,SSE,161,5.0,11.0,52,0.00,,,0.00,Wunderground v.1.15,2013-01-01 19:05:00,
2013-01-01 14:08:00,79.0,59.3,29.98,SSW,208,5.0,11.0,51,0.00,,,0.00,Wunderground v.1.15,2013-01-01 19:08:00,
2013-01-01 14:10:00,79.2,59.5,29.98,SSW,196,5.0,8.0,51,0.00,,,0.00,Wunderground v.1.15,2013-01-01 19:10:00,
2013-01-01 14:11:00,79.4,59.7,29.98,SSW,193,6.0,8.0,51,0.00,,,0.00,Wunderground v.1.15,2013-01-01 19:11:00,
2013-01-01 14:12:00,79.6,60.4,29.98,SSW,193,5.0,8.0,52,0.00,,,0.00,Wunderground v.1.15,2013-01-01 19:12:00,
2013-01-01 14:14:00,79.2,59.5,29.98,SW,217,5.0,8.0,51,0.00,,,0.00,Wunderground v.1.15,2013-01-01 19:14:00,
2013-01-01 14:16:00,79.0,59.3,29.98,SSE,147,4.0,8.0,51,0.00,,,0.00,Wunderground v.1.15,2013-01-01 19:16:00,
2013-01-01 14:18:00,79.4,60.2,29.98,SSW,202,4.0,8.0,52,0.00,,,0.00,Wunderground v.1.15,2013-01-01 19:18:00,
2013-01-01 14:21:00,79.4,59.7,29.98,SSW,209,4.0,9.0,51,0.00,,,0.00,Wunderground v.1.15,2013-01-01 19:21:00,
2013-01-01 14:23:00,79.6,59.9,29.98,SW,217,4.0,9.0,51,0.00,,,0.00,Wunderground v.1.15,2013-01-01 19:23:00,
2013-01-01 14:26:00,79.9,60.2,29.98,South,189,4.0,9.0,51,0.00,,,0.00,Wunderground v.1.15,2013-01-01 19:26:00,
2013-01-01 14:28:00,79.6,59.3,29.98,South,169,4.0,9.0,50,0.00,,,0.00,Wunderground v.1.15,2013-01-01 19:28:00,
2013-01-01 14:32:00,78.8,59.7,29.98,SSW,209,4.0,9.0,52,0.00,,,0.00,Wunderground v.1.15,2013-01-01 19:32:00,
2013-01-01 14:33:00,78.6,59.5,29.98,SW,217,4.0,9.0,52,0.00,,,0.00,Wunderground v.1.15,2013-01-01 19:33:00,
2013-01-01 14:34:00,78.5,59.9,29.98,East,95,4.0,9.0,53,0.00,,,0.00,Wunderground v.1.15,2013-01-01 19:34:00,
2013-01-01 14:36:00,78.3,60.3,29.98,South,178,5.0,9.0,54,0.00,,,0.00,Wunderground v.1.15,2013-01-01 19:36:00,
2013-01-01 14:38:00,78.5,60.5,29.98,South,179,4.0,9.0,54,0.00,,,0.00,Wunderground v.1.15,2013-01-01 19:38:00,
2013-01-01 14:40:00,78.5,60.5,29.98,SSW,209,3.0,3.0,54,0.00,,,0.00,Wunderground v.1.15,2013-01-01 19:40:00,
2013-01-01 14:41:00,78.3,59.8,29.98,SSE,161,3.0,8.0,53,0.00,,,0.00,Wunderground v.1.15,2013-01-01 19:41:00,
2013-01-01 14:44:00,78.1,59.6,29.98,SSW,208,3.0,9.0,53,0.00,,,0.00,Wunderground v.1.15,2013-01-01 19:44:00,
2013-01-01 14:45:00,77.9,59.4,29.98,South,179,4.0,9.0,53,0.00,,,0.00,Wunderground v.1.15,2013-01-01 19:45:00,
2013-01-01 14:47:00,78.1,59.6,29.98,ESE,112,4.0,9.0,53,0.00,,,0.00,Wunderground v.1.15,2013-01-01 19:47:00,
2013-01-01 14:48:00,78.3,59.8,29.98,SSE,167,5.0,12.0,53,0.00,,,0.00,Wunderground v.1.15,2013-01-01 19:48:00,
2013-01-01 14:52:00,78.3,59.8,29.98,SE,140,6.0,13.0,53,0.00,,,0.00,Wunderground v.1.15,2013-01-01 19:52:00,
2013-01-01 14:53:00,78.3,59.8,29.98,South,189,7.0,13.0,53,0.00,,,0.00,Wunderground v.1.15,2013-01-01 19:53:00,
2013-01-01 14:54:00,78.1,59.6,29.98,South,181,6.0,13.0,53,0.00,,,0.00,Wunderground v.1.15,2013-01-01 19:54:00,
2013-01-01 14:58:00,78.1,59.6,29.98,SSW,210,5.0,13.0,53,0.00,,,0.00,Wunderground v.1.15,2013-01-01 19:58:00,
2013-01-01 14:59:00,78.1,60.1,29.98,SSW,208,4.0,13.0,54,0.00,,,0.00,Wunderground v.1.15,2013-01-01 19:59:00,
2013-01-01 15:00:00,78.1,60.1,29.98,SSW,198,4.0,4.0,54,0.00,,,0.00,Wunderground v.1.15,2013-01-01 20:00:00,
2013-01-01 15:01:00,77.9,59.9,29.98,SSW,198,3.0,8.0,54,0.00,,,0.00,Wunderground v.1.15,2013-01-01 20:01:00,
2013-01-01 15:04:00,77.7,59.2,29.98,SSE,164,2.0,8.0,53,0.00,,,0.00,Wunderground v.1.15,2013-01-01 20:04:00,
2013-01-01 15:05:00,77.9,59.9,29.98,SSE,165,2.0,8.0,54,0.00,,,0.00,Wunderground v.1.15,2013-01-01 20:05:00,
2013-01-01 15:10:00,78.5,59.9,29.98,SSW,206,2.0,8.0,53,0.00,,,0.00,Wunderground v.1.15,2013-01-01 20:10:00,
2013-01-01 15:11:00,78.5,59.4,29.98,SSE,160,3.0,8.0,52,0.00,,,0.00,Wunderground v.1.15,2013-01-01 20:11:00,
2013-01-01 15:14:00,78.6,59.0,29.98,SSW,206,3.0,8.0,51,0.00,,,0.00,Wunderground v.1.15,2013-01-01 20:14:00,
2013-01-01 15:15:00,78.6,59.5,29.98,South,175,3.0,8.0,52,0.00,,,0.00,Wunderground v.1.15,2013-01-01 20:15:00,
2013-01-01 15:18:00,77.9,59.4,29.98,South,188,4.0,8.0,53,0.00,,,0.00,Wunderground v.1.15,2013-01-01 20:18:00,
2013-01-01 15:20:00,77.9,59.9,29.98,SSW,200,4.0,8.0,54,0.00,,,0.00,Wunderground v.1.15,2013-01-01 20:20:00,
2013-01-01 15:22:00,77.9,59.4,29.98,South,169,5.0,10.0,53,0.00,,,0.00,Wunderground v.1.15,2013-01-01 20:22:00,
2013-01-01 15:23:00,77.9,59.9,29.98,SSW,202,5.0,10.0,54,0.00,,,0.00,Wunderground v.1.15,2013-01-01 20:23:00,
2013-01-01 15:24:00,77.7,59.7,29.98,South,188,5.0,10.0,54,0.00,,,0.00,Wunderground v.1.15,2013-01-01 20:24:00,
2013-01-01 15:28:00,77.7,59.7,29.98,SSW,196,4.0,10.0,54,0.00,,,0.00,Wunderground v.1.15,2013-01-01 20:28:00,
2013-01-01 15:29:00,77.9,59.9,29.98,SSW,192,4.0,10.0,54,0.00,,,0.00,Wunderground v.1.15,2013-01-01 20:29:00,
2013-01-01 15:30:00,77.9,59.9,29.98,South,188,4.0,8.0,54,0.00,,,0.00,Wunderground v.1.15,2013-01-01 20:30:00,
2013-01-01 15:32:00,78.3,60.3,29.98,SSE,152,4.0,8.0,54,0.00,,,0.00,Wunderground v.1.15,2013-01-01 20:32:00,
2013-01-01 15:34:00,78.3,59.8,29.98,South,175,4.0,8.0,53,0.00,,,0.00,Wunderground v.1.15,2013-01-01 20:34:00,
2013-01-01 15:36:00,78.3,60.3,29.98,South,179,4.0,8.0,54,0.00,,,0.00,Wunderground v.1.15,2013-01-01 20:36:00,
2013-01-01 15:37:00,78.3,60.3,29.98,SSE,157,4.0,8.0,54,0.00,,,0.00,Wunderground v.1.15,2013-01-01 20:37:00,
2013-01-01 15:38:00,78.3,60.3,29.98,SSE,147,4.0,11.0,54,0.00,,,0.00,Wunderground v.1.15,2013-01-01 20:38:00,
2013-01-01 15:42:00,77.9,59.4,29.98,South,172,4.0,8.0,53,0.00,,,0.00,Wunderground v.1.15,2013-01-01 20:42:00,
2013-01-01 15:44:00,77.9,59.9,29.98,South,188,3.0,8.0,54,0.00,,,0.00,Wunderground v.1.15,2013-01-01 20:44:00,
2013-01-01 15:45:00,77.9,59.9,29.97,SSE,150,3.0,8.0,54,0.00,,,0.00,Wunderground v.1.15,2013-01-01 20:45:00,
2013-01-01 15:48:00,77.6,59.6,29.97,SSW,203,4.0,8.0,54,0.00,,,0.00,Wunderground v.1.15,2013-01-01 20:48:00,
2013-01-01 15:51:00,77.4,60.0,29.97,SE,124,3.0,8.0,55,0.00,,,0.00,Wunderground v.1.15,2013-01-01 20:51:00,
2013-01-01 15:53:00,77.2,59.8,29.97,SE,138,3.0,8.0,55,0.00,,,0.00,Wunderground v.1.15,2013-01-01 20:53:00,
2013-01-01 15:57:00,77.0,60.1,29.97,South,176,3.0,8.0,56,0.00,,,0.00,Wunderground v.1.15,2013-01-01 20:57:00,
2013-01-01 15:59:00,76.8,59.9,29.97,South,176,3.0,8.0,56,0.00,,,0.00,Wunderground v.1.15,2013-01-01 20:59:00,
2013-01-01 16:01:00,76.8,59.9,29.97,SSW,198,3.0,8.0,56,0.00,,,0.00,Wunderground v.1.15,2013-01-01 21:01:00,
2013-01-01 16:03:00,76.8,60.4,29.97,South,185,4.0,8.0,57,0.00,,,0.00,Wunderground v.1.15,2013-01-01 21:03:00,
2013-01-01 16:04:00,76.8,60.4,29.97,South,182,4.0,8.0,57,0.00,,,0.00,Wunderground v.1.15,2013-01-01 21:04:00,
2013-01-01 16:05:00,76.8,60.9,29.97,South,175,4.0,8.0,58,0.00,,,0.00,Wunderground v.1.15,2013-01-01 21:05:00,
2013-01-01 16:10:00,76.7,61.3,29.97,South,178,3.0,8.0,59,0.00,,,0.00,Wunderground v.1.15,2013-01-01 21:10:00,
2013-01-01 16:12:00,76.7,61.3,29.97,South,181,3.0,8.0,59,0.00,,,0.00,Wunderground v.1.15,2013-01-01 21:12:00,
2013-01-01 16:13:00,76.7,61.3,29.97,South,179,3.0,8.0,59,0.00,,,0.00,Wunderground v.1.15,2013-01-01 21:13:00,
2013-01-01 16:16:00,76.7,61.8,29.97,SSW,192,3.0,8.0,60,0.00,,,0.00,Wunderground v.1.15,2013-01-01 21:16:00,
2013-01-01 16:17:00,76.7,61.8,29.97,ESE,114,2.0,8.0,60,0.00,,,0.00,Wunderground v.1.15,2013-01-01 21:17:00,
2013-01-01 16:19:00,76.7,61.3,29.97,SSW,210,3.0,8.0,59,0.00,,,0.00,Wunderground v.1.15,2013-01-01 21:19:00,
2013-01-01 16:21:00,76.7,61.8,29.97,South,185,3.0,8.0,60,0.00,,,0.00,Wunderground v.1.15,2013-01-01 21:21:00,
2013-01-01 16:23:00,76.7,61.8,29.97,South,184,2.0,8.0,60,0.00,,,0.00,Wunderground v.1.15,2013-01-01 21:23:00,
2013-01-01 16:24:00,76.7,61.8,29.97,South,175,2.0,8.0,60,0.00,,,0.00,Wunderground v.1.15,2013-01-01 21:24:00,
2013-01-01 16:29:00,76.5,62.0,29.97,SSE,148,2.0,8.0,61,0.00,,,0.00,Wunderground v.1.15,2013-01-01 21:29:00,
2013-01-01 16:30:00,76.5,62.0,29.97,SSE,148,2.0,2.0,61,0.00,,,0.00,Wunderground v.1.15,2013-01-01 21:30:00,
2013-01-01 16:32:00,76.3,61.4,29.97,SE,128,2.0,8.0,60,0.00,,,0.00,Wunderground v.1.15,2013-01-01 21:32:00,
2013-01-01 16:34:00,76.3,60.9,29.97,South,182,3.0,8.0,59,0.00,,,0.00,Wunderground v.1.15,2013-01-01 21:34:00,
2013-01-01 16:35:00,76.3,60.9,29.97,South,181,3.0,8.0,59,0.00,,,0.00,Wunderground v.1.15,2013-01-01 21:35:00,
2013-01-01 16:40:00,76.1,60.7,29.97,SSW,200,4.0,8.0,59,0.00,,,0.00,Wunderground v.1.15,2013-01-01 21:40:00,
2013-01-01 16:41:00,76.1,60.7,29.97,SSW,200,4.0,8.0,59,0.00,,,0.00,Wunderground v.1.15,2013-01-01 21:41:00,
2013-01-01 16:42:00,76.1,60.7,29.97,SSE,162,4.0,8.0,59,0.00,,,0.00,Wunderground v.1.15,2013-01-01 21:42:00,
2013-01-01 16:43:00,76.1,60.7,29.97,SSE,164,4.0,8.0,59,0.00,,,0.00,Wunderground v.1.15,2013-01-01 21:43:00,
2013-01-01 16:46:00,76.1,61.2,29.97,South,191,3.0,8.0,60,0.00,,,0.00,Wunderground v.1.15,2013-01-01 21:46:00,
2013-01-01 16:47:00,76.1,61.7,29.97,SE,144,3.0,8.0,61,0.00,,,0.00,Wunderground v.1.15,2013-01-01 21:47:00,
2013-01-01 16:49:00,76.0,62.0,29.97,ESE,114,3.0,8.0,62,0.00,,,0.00,Wunderground v.1.15,2013-01-01 21:49:00,
2013-01-01 16:52:00,75.8,61.8,29.97,SW,215,3.0,8.0,62,0.00,,,0.00,Wunderground v.1.15,2013-01-01 21:52:00,
2013-01-01 16:53:00,75.8,61.8,29.97,South,171,3.0,8.0,62,0.00,,,0.00,Wunderground v.1.15,2013-01-01 21:53:00,
2013-01-01 16:55:00,75.8,61.8,29.97,SSE,164,4.0,8.0,62,0.00,,,0.00,Wunderground v.1.15,2013-01-01 21:55:00,
2013-01-01 16:58:00,75.6,61.7,29.97,SSE,167,3.0,8.0,62,0.00,,,0.00,Wunderground v.1.15,2013-01-01 21:58:00,
2013-01-01 17:00:00,75.6,61.7,29.97,South,179,3.0,8.0,62,0.00,,,0.00,Wunderground v.1.15,2013-01-01 22:00:00,
2013-01-01 17:05:00,75.4,61.9,29.97,SSE,165,3.0,8.0,63,0.00,,,0.00,Wunderground v.1.15,2013-01-01 22:05:00,
2013-01-01 17:06:00,75.4,61.9,29.97,SSE,164,3.0,8.0,63,0.00,,,0.00,Wunderground v.1.15,2013-01-01 22:06:00,
2013-01-01 17:09:00,75.4,61.9,29.97,SSE,155,3.0,8.0,63,0.00,,,0.00,Wunderground v.1.15,2013-01-01 22:09:00,
2013-01-01 17:11:00,75.4,62.4,29.97,SSE,162,3.0,8.0,64,0.00,,,0.00,Wunderground v.1.15,2013-01-01 22:11:00,
2013-01-01 17:12:00,75.3,62.3,29.97,South,175,3.0,8.0,64,0.00,,,0.00,Wunderground v.1.15,2013-01-01 22:12:00,
2013-01-01 17:15:00,75.3,62.3,29.97,South,178,3.0,8.0,64,0.00,,,0.00,Wunderground v.1.15,2013-01-01 22:15:00,
2013-01-01 17:19:00,75.1,62.1,29.97,South,174,3.0,8.0,64,0.00,,,0.00,Wunderground v.1.15,2013-01-01 22:19:00,
2013-01-01 17:20:00,75.3,62.3,29.97,South,174,3.0,3.0,64,0.00,,,0.00,Wunderground v.1.15,2013-01-01 22:20:00,
2013-01-01 17:24:00,75.1,62.1,29.97,SSE,152,2.0,8.0,64,0.00,,,0.00,Wunderground v.1.15,2013-01-01 22:24:00,
2013-01-01 17:25:00,75.1,62.1,29.97,SSE,152,2.0,8.0,64,0.00,,,0.00,Wunderground v.1.15,2013-01-01 22:25:00,
2013-01-01 17:26:00,75.1,62.1,29.97,SSE,151,1.0,8.0,64,0.00,,,0.00,Wunderground v.1.15,2013-01-01 22:26:00,
2013-01-01 17:27:00,75.1,62.1,29.97,SSE,154,1.0,8.0,64,0.00,,,0.00,Wunderground v.1.15,2013-01-01 22:27:00,
2013-01-01 17:30:00,74.9,61.9,29.97,SSE,161,2.0,8.0,64,0.00,,,0.00,Wunderground v.1.15,2013-01-01 22:30:00,
2013-01-01 17:32:00,74.9,61.9,29.97,SSE,165,2.0,8.0,64,0.00,,,0.00,Wunderground v.1.15,2013-01-01 22:32:00,
2013-01-01 17:33:00,74.9,61.9,29.97,SSE,158,2.0,8.0,64,0.00,,,0.00,Wunderground v.1.15,2013-01-01 22:33:00,
2013-01-01 17:34:00,74.9,61.9,29.97,SSE,158,2.0,8.0,64,0.00,,,0.00,Wunderground v.1.15,2013-01-01 22:34:00,
2013-01-01 17:35:00,74.9,61.9,29.97,SSE,158,2.0,8.0,64,0.00,,,0.00,Wunderground v.1.15,2013-01-01 22:35:00,
2013-01-01 17:38:00,74.9,62.3,29.97,SSE,158,2.0,8.0,65,0.00,,,0.00,Wunderground v.1.15,2013-01-01 22:38:00,
2013-01-01 17:39:00,74.9,62.3,29.97,South,172,2.0,8.0,65,0.00,,,0.00,Wunderground v.1.15,2013-01-01 22:39:00,
2013-01-01 17:40:00,74.9,62.3,29.97,South,172,2.0,2.0,65,0.00,,,0.00,Wunderground v.1.15,2013-01-01 22:40:00,
2013-01-01 17:43:00,74.7,62.1,29.97,South,171,2.0,8.0,65,0.00,,,0.00,Wunderground v.1.15,2013-01-01 22:43:00,
2013-01-01 17:45:00,74.7,62.1,29.97,South,185,2.0,8.0,65,0.00,,,0.00,Wunderground v.1.15,2013-01-01 22:45:00,
2013-01-01 17:46:00,74.7,62.1,29.97,SSW,210,2.0,8.0,65,0.00,,,0.00,Wunderground v.1.15,2013-01-01 22:46:00,
2013-01-01 17:48:00,74.7,62.1,29.97,SSE,164,2.0,8.0,65,0.00,,,0.00,Wunderground v.1.15,2013-01-01 22:48:00,
2013-01-01 17:50:00,74.6,62.5,29.97,SSE,160,2.0,2.0,66,0.00,,,0.00,Wunderground v.1.15,2013-01-01 22:50:00,
2013-01-01 17:52:00,74.6,62.5,29.97,SSE,167,2.0,8.0,66,0.00,,,0.00,Wunderground v.1.15,2013-01-01 22:52:00,
2013-01-01 17:54:00,74.6,62.5,29.97,SSE,167,2.0,8.0,66,0.00,,,0.00,Wunderground v.1.15,2013-01-01 22:54:00,
2013-01-01 17:55:00,74.6,62.5,29.97,South,178,2.0,8.0,66,0.00,,,0.00,Wunderground v.1.15,2013-01-01 22:55:00,
2013-01-01 17:58:00,74.6,62.5,29.97,South,191,2.0,8.0,66,0.00,,,0.00,Wunderground v.1.15,2013-01-01 22:58:00,
2013-01-01 18:01:00,74.6,62.5,29.97,South,186,2.0,8.0,66,0.00,,,0.00,Wunderground v.1.15,2013-01-01 23:01:00,
2013-01-01 18:02:00,74.6,62.5,29.97,South,188,2.0,8.0,66,0.00,,,0.00,Wunderground v.1.15,2013-01-01 23:02:00,
2013-01-01 18:03:00,74.6,62.5,29.97,South,188,2.0,8.0,66,0.00,,,0.00,Wunderground v.1.15,2013-01-01 23:03:00,
2013-01-01 18:08:00,74.4,62.3,29.97,South,182,1.0,8.0,66,0.00,,,0.00,Wunderground v.1.15,2013-01-01 23:08:00,
2013-01-01 18:09:00,74.4,62.3,29.97,South,182,0.0,8.0,66,0.00,,,0.00,Wunderground v.1.15,2013-01-01 23:09:00,
2013-01-01 18:15:00,74.4,62.3,29.98,SSE,162,1.0,8.0,66,0.00,,,0.00,Wunderground v.1.15,2013-01-01 23:15:00,
2013-01-01 18:17:00,74.4,62.3,29.98,SSW,193,1.0,8.0,66,0.00,,,0.00,Wunderground v.1.15,2013-01-01 23:17:00,
2013-01-01 18:19:00,74.4,61.4,29.98,South,186,1.0,8.0,64,0.00,,,0.00,Wunderground v.1.15,2013-01-01 23:19:00,
2013-01-01 18:23:00,74.4,61.0,29.98,South,182,2.0,8.0,63,0.00,,,0.00,Wunderground v.1.15,2013-01-01 23:23:00,
2013-01-01 18:25:00,74.4,60.5,29.98,South,191,2.0,8.0,62,0.00,,,0.00,Wunderground v.1.15,2013-01-01 23:25:00,
2013-01-01 18:30:00,74.4,60.5,29.98,South,189,1.0,8.0,62,0.00,,,0.00,Wunderground v.1.15,2013-01-01 23:30:00,
2013-01-01 18:31:00,74.4,60.5,29.98,South,191,1.0,8.0,62,0.00,,,0.00,Wunderground v.1.15,2013-01-01 23:31:00,
2013-01-01 18:34:00,74.4,60.5,29.98,South,191,0.0,8.0,62,0.00,,,0.00,Wunderground v.1.15,2013-01-01 23:34:00,
2013-01-01 18:36:00,74.4,60.5,29.98,South,191,0.0,8.0,62,0.00,,,0.00,Wunderground v.1.15,2013-01-01 23:36:00,
2013-01-01 18:37:00,74.4,60.5,29.98,South,191,0.0,8.0,62,0.00,,,0.00,Wunderground v.1.15,2013-01-01 23:37:00,
2013-01-01 18:39:00,74.4,60.5,29.98,South,191,0.0,8.0,62,0.00,,,0.00,Wunderground v.1.15,2013-01-01 23:39:00,
2013-01-01 18:40:00,74.4,60.5,29.98,South,191,0.0,8.0,62,0.00,,,0.00,Wunderground v.1.15,2013-01-01 23:40:00,
2013-01-01 18:44:00,74.2,60.8,29.98,South,191,1.0,8.0,63,0.00,,,0.00,Wunderground v.1.15,2013-01-01 23:44:00,
2013-01-01 18:45:00,74.2,60.8,29.98,South,191,1.0,8.0,63,0.00,,,0.00,Wunderground v.1.15,2013-01-01 23:45:00,
2013-01-01 18:46:00,74.2,60.8,29.98,South,191,1.0,8.0,63,0.00,,,0.00,Wunderground v.1.15,2013-01-01 23:46:00,
2013-01-01 18:51:00,74.0,61.0,29.98,South,191,0.0,8.0,64,0.00,,,0.00,Wunderground v.1.15,2013-01-01 23:51:00,
2013-01-01 18:52:00,74.0,61.0,29.98,South,191,0.0,8.0,64,0.00,,,0.00,Wunderground v.1.15,2013-01-01 23:52:00,
2013-01-01 18:53:00,74.0,61.0,29.98,South,191,0.0,8.0,64,0.00,,,0.00,Wunderground v.1.15,2013-01-01 23:53:00,
2013-01-01 18:56:00,73.9,61.0,29.98,South,191,0.0,8.0,64,0.00,,,0.00,Wunderground v.1.15,2013-01-01 23:56:00,
2013-01-01 18:58:00,73.7,60.8,29.98,South,189,0.0,8.0,64,0.00,,,0.00,Wunderground v.1.15,2013-01-01 23:58:00,
2013-01-01 18:59:00,73.7,60.8,29.98,South,189,0.0,8.0,64,0.00,,,0.00,Wunderground v.1.15,2013-01-01 23:59:00,
2013-01-01 19:00:00,73.7,60.8,29.98,South,189,0.0,8.0,64,0.00,,,0.00,Wunderground v.1.15,2013-01-02 00:00:00,
2013-01-01 19:05:00,73.5,60.6,29.98,South,191,0.0,8.0,64,0.00,,,0.00,Wunderground v.1.15,2013-01-02 00:05:00,
2013-01-01 19:06:00,73.5,60.6,29.98,South,191,0.0,8.0,64,0.00,,,0.00,Wunderground v.1.15,2013-01-02 00:06:00,
2013-01-01 19:08:00,73.3,60.4,29.98,South,191,0.0,8.0,64,0.00,,,0.00,Wunderground v.1.15,2013-01-02 00:08:00,
2013-01-01 19:11:00,73.2,60.3,29.98,South,191,0.0,8.0,64,0.00,,,0.00,Wunderground v.1.15,2013-01-02 00:11:00,
2013-01-01 19:12:00,73.2,60.7,29.98,South,191,0.0,8.0,65,0.00,,,0.00,Wunderground v.1.15,2013-01-02 00:12:00,
2013-01-01 19:14:00,73.2,60.7,29.98,South,191,0.0,8.0,65,0.00,,,0.00,Wunderground v.1.15,2013-01-02 00:14:00,
2013-01-01 19:15:00,73.0,60.5,29.98,South,191,0.0,8.0,65,0.00,,,0.00,Wunderground v.1.15,2013-01-02 00:15:00,
2013-01-01 19:19:00,72.8,60.3,29.98,South,191,0.0,8.0,65,0.00,,,0.00,Wunderground v.1.15,2013-01-02 00:19:00,
2013-01-01 19:20:00,72.8,60.3,29.98,South,191,0.0,8.0,65,0.00,,,0.00,Wunderground v.1.15,2013-01-02 00:20:00,
2013-01-01 19:21:00,72.8,60.3,29.98,South,191,0.0,8.0,65,0.00,,,0.00,Wunderground v.1.15,2013-01-02 00:21:00,
2013-01-01 19:24:00,72.7,60.3,29.98,South,189,0.0,8.0,65,0.00,,,0.00,Wunderground v.1.15,2013-01-02 00:24:00,
2013-01-01 19:25:00,72.7,60.3,29.98,South,189,0.0,8.0,65,0.00,,,0.00,Wunderground v.1.15,2013-01-02 00:25:00,
2013-01-01 19:26:00,72.7,60.3,29.98,South,189,0.0,8.0,65,0.00,,,0.00,Wunderground v.1.15,2013-01-02 00:26:00,
2013-01-01 19:29:00,72.5,60.1,29.98,South,189,0.0,8.0,65,0.00,,,0.00,Wunderground v.1.15,2013-01-02 00:29:00,
2013-01-01 19:31:00,72.5,60.5,29.99,South,189,0.0,8.0,66,0.00,,,0.00,Wunderground v.1.15,2013-01-02 00:31:00,
2013-01-01 19:32:00,72.3,60.3,29.99,South,189,0.0,8.0,66,0.00,,,0.00,Wunderground v.1.15,2013-01-02 00:32:00,
2013-01-01 19:33:00,72.3,60.3,29.99,South,189,0.0,8.0,66,0.00,,,0.00,Wunderground v.1.15,2013-01-02 00:33:00,
2013-01-01 19:36:00,72.3,60.3,29.99,South,189,0.0,8.0,66,0.00,,,0.00,Wunderground v.1.15,2013-01-02 00:36:00,
2013-01-01 19:37:00,72.1,60.1,29.99,South,189,0.0,8.0,66,0.00,,,0.00,Wunderground v.1.15,2013-01-02 00:37:00,
2013-01-01 19:39:00,72.1,60.1,29.99,South,189,0.0,8.0,66,0.00,,,0.00,Wunderground v.1.15,2013-01-02 00:39:00,
2013-01-01 19:42:00,72.1,60.5,29.99,South,189,0.0,8.0,67,0.00,,,0.00,Wunderground v.1.15,2013-01-02 00:42:00,
2013-01-01 19:44:00,72.0,60.4,29.99,South,189,0.0,8.0,67,0.00,,,0.00,Wunderground v.1.15,2013-01-02 00:44:00,
2013-01-01 19:45:00,72.0,60.4,29.99,South,189,0.0,8.0,67,0.00,,,0.00,Wunderground v.1.15,2013-01-02 00:45:00,
2013-01-01 19:48:00,72.0,60.4,29.99,South,189,0.0,8.0,67,0.00,,,0.00,Wunderground v.1.15,2013-01-02 00:48:00,
2013-01-01 19:51:00,71.8,60.2,29.99,South,191,0.0,8.0,67,0.00,,,0.00,Wunderground v.1.15,2013-01-02 00:51:00,
2013-01-01 19:52:00,71.8,60.2,29.99,South,189,0.0,8.0,67,0.00,,,0.00,Wunderground v.1.15,2013-01-02 00:52:00,
2013-01-01 19:53:00,71.8,60.2,29.99,South,189,0.0,8.0,67,0.00,,,0.00,Wunderground v.1.15,2013-01-02 00:53:00,
2013-01-01 19:55:00,71.8,60.7,29.99,South,189,0.0,8.0,68,0.00,,,0.00,Wunderground v.1.15,2013-01-02 00:55:00,
2013-01-01 19:56:00,71.8,60.7,29.99,South,189,0.0,8.0,68,0.00,,,0.00,Wunderground v.1.15,2013-01-02 00:56:00,
2013-01-01 19:58:00,71.6,60.5,29.99,South,189,0.0,8.0,68,0.00,,,0.00,Wunderground v.1.15,2013-01-02 00:58:00,
2013-01-01 20:02:00,71.6,60.5,29.99,South,189,0.0,8.0,68,0.00,,,0.00,Wunderground v.1.15,2013-01-02 01:02:00,
2013-01-01 20:04:00,71.5,60.4,29.99,South,189,0.0,8.0,68,0.00,,,0.00,Wunderground v.1.15,2013-01-02 01:04:00,
2013-01-01 20:07:00,71.3,60.6,29.99,South,189,0.0,8.0,69,0.00,,,0.00,Wunderground v.1.15,2013-01-02 01:07:00,
2013-01-01 20:08:00,71.3,60.6,29.99,South,189,0.0,8.0,69,0.00,,,0.00,Wunderground v.1.15,2013-01-02 01:08:00,
2013-01-01 20:09:00,71.3,60.6,29.99,South,189,0.0,8.0,69,0.00,,,0.00,Wunderground v.1.15,2013-01-02 01:09:00,
2013-01-01 20:12:00,71.1,60.8,29.99,South,189,0.0,8.0,70,0.00,,,0.00,Wunderground v.1.15,2013-01-02 01:12:00,
2013-01-01 20:13:00,71.1,60.8,29.99,South,189,0.0,8.0,70,0.00,,,0.00,Wunderground v.1.15,2013-01-02 01:13:00,
2013-01-01 20:18:00,70.9,61.0,29.99,South,189,0.0,8.0,71,0.00,,,0.00,Wunderground v.1.15,2013-01-02 01:18:00,
2013-01-01 20:19:00,70.9,61.0,29.99,South,189,0.0,8.0,71,0.00,,,0.00,Wunderground v.1.15,2013-01-02 01:19:00,
2013-01-01 20:24:00,70.8,60.9,29.99,South,189,0.0,8.0,71,0.00,,,0.00,Wunderground v.1.15,2013-01-02 01:24:00,
2013-01-01 20:25:00,70.8,60.9,29.99,South,189,0.0,8.0,71,0.00,,,0.00,Wunderground v.1.15,2013-01-02 01:25:00,
2013-01-01 20:26:00,70.8,60.9,29.99,South,189,0.0,8.0,71,0.00,,,0.00,Wunderground v.1.15,2013-01-02 01:26:00,
2013-01-01 20:27:00,70.8,60.9,29.99,South,189,0.0,8.0,71,0.00,,,0.00,Wunderground v.1.15,2013-01-02 01:27:00,
2013-01-01 20:31:00,70.6,61.1,29.99,South,189,0.0,8.0,72,0.00,,,0.00,Wunderground v.1.15,2013-01-02 01:31:00,
2013-01-01 20:32:00,70.6,61.1,29.99,South,189,0.0,8.0,72,0.00,,,0.00,Wunderground v.1.15,2013-01-02 01:32:00,
2013-01-01 20:33:00,70.6,61.1,29.99,South,189,0.0,8.0,72,0.00,,,0.00,Wunderground v.1.15,2013-01-02 01:33:00,
2013-01-01 20:34:00,70.6,61.1,29.99,South,189,0.0,8.0,72,0.00,,,0.00,Wunderground v.1.15,2013-01-02 01:34:00,
2013-01-01 20:38:00,70.6,61.1,29.99,South,189,0.0,8.0,72,0.00,,,0.00,Wunderground v.1.15,2013-01-02 01:38:00,
2013-01-01 20:40:00,70.6,61.1,29.99,South,189,0.0,8.0,72,0.00,,,0.00,Wunderground v.1.15,2013-01-02 01:40:00,
2013-01-01 20:44:00,70.6,61.1,29.99,South,189,0.0,8.0,72,0.00,,,0.00,Wunderground v.1.15,2013-01-02 01:44:00,
2013-01-01 20:45:00,70.6,61.1,29.99,South,189,0.0,8.0,72,0.00,,,0.00,Wunderground v.1.15,2013-01-02 01:45:00,
2013-01-01 20:46:00,70.6,61.1,29.99,South,189,0.0,8.0,72,0.00,,,0.00,Wunderground v.1.15,2013-01-02 01:46:00,
2013-01-01 20:48:00,70.6,61.1,29.99,South,191,0.0,8.0,72,0.00,,,0.00,Wunderground v.1.15,2013-01-02 01:48:00,
2013-01-01 20:51:00,70.6,61.1,29.99,South,189,0.0,8.0,72,0.00,,,0.00,Wunderground v.1.15,2013-01-02 01:51:00,
2013-01-01 20:53:00,70.6,61.1,29.99,South,189,0.0,8.0,72,0.00,,,0.00,Wunderground v.1.15,2013-01-02 01:53:00,
2013-01-01 20:55:00,70.6,61.1,29.99,South,189,0.0,8.0,72,0.00,,,0.00,Wunderground v.1.15,2013-01-02 01:55:00,
2013-01-01 20:57:00,70.6,61.1,29.99,South,189,0.0,8.0,72,0.00,,,0.00,Wunderground v.1.15,2013-01-02 01:57:00,
2013-01-01 20:59:00,70.6,61.1,29.99,South,189,0.0,8.0,72,0.00,,,0.00,Wunderground v.1.15,2013-01-02 01:59:00,
2013-01-01 21:03:00,70.6,61.1,30.00,South,189,0.0,8.0,72,0.00,,,0.00,Wunderground v.1.15,2013-01-02 02:03:00,
2013-01-01 21:04:00,70.6,61.1,30.00,South,189,0.0,8.0,72,0.00,,,0.00,Wunderground v.1.15,2013-01-02 02:04:00,
2013-01-01 21:06:00,70.6,61.1,30.00,South,189,0.0,8.0,72,0.00,,,0.00,Wunderground v.1.15,2013-01-02 02:06:00,
2013-01-01 21:09:00,70.4,60.9,30.00,South,189,0.0,8.0,72,0.00,,,0.00,Wunderground v.1.15,2013-01-02 02:09:00,
2013-01-01 21:10:00,70.4,60.9,30.00,South,191,0.0,8.0,72,0.00,,,0.00,Wunderground v.1.15,2013-01-02 02:10:00,
2013-01-01 21:11:00,70.4,60.9,30.00,South,189,0.0,8.0,72,0.00,,,0.00,Wunderground v.1.15,2013-01-02 02:11:00,
2013-01-01 21:13:00,70.4,60.9,30.00,South,189,0.0,8.0,72,0.00,,,0.00,Wunderground v.1.15,2013-01-02 02:13:00,
2013-01-01 21:16:00,70.4,61.3,30.00,South,189,0.0,8.0,73,0.00,,,0.00,Wunderground v.1.15,2013-01-02 02:16:00,
2013-01-01 21:18:00,70.4,61.3,30.00,South,189,0.0,8.0,73,0.00,,,0.00,Wunderground v.1.15,2013-01-02 02:18:00,
2013-01-01 21:20:00,70.4,61.3,30.00,South,189,0.0,8.0,73,0.00,,,0.00,Wunderground v.1.15,2013-01-02 02:20:00,
2013-01-01 21:22:00,70.3,61.6,30.00,South,189,0.0,8.0,74,0.00,,,0.00,Wunderground v.1.15,2013-01-02 02:22:00,
2013-01-01 21:23:00,70.3,61.6,30.00,South,189,0.0,8.0,74,0.00,,,0.00,Wunderground v.1.15,2013-01-02 02:23:00,
2013-01-01 21:24:00,70.3,61.6,30.00,South,189,0.0,8.0,74,0.00,,,0.00,Wunderground v.1.15,2013-01-02 02:24:00,
2013-01-01 21:26:00,70.3,61.6,30.00,South,189,0.0,8.0,74,0.00,,,0.00,Wunderground v.1.15,2013-01-02 02:26:00,
2013-01-01 21:29:00,70.1,61.8,30.00,South,189,0.0,8.0,75,0.00,,,0.00,Wunderground v.1.15,2013-01-02 02:29:00,
2013-01-01 21:30:00,70.1,61.8,30.00,South,189,0.0,8.0,75,0.00,,,0.00,Wunderground v.1.15,2013-01-02 02:30:00,
2013-01-01 21:33:00,70.1,62.2,30.00,South,189,0.0,8.0,76,0.00,,,0.00,Wunderground v.1.15,2013-01-02 02:33:00,
2013-01-01 21:35:00,70.1,62.2,30.00,South,189,0.0,8.0,76,0.00,,,0.00,Wunderground v.1.15,2013-01-02 02:35:00,
2013-01-01 21:40:00,69.8,62.3,30.00,South,189,0.0,8.0,77,0.00,,,0.00,Wunderground v.1.15,2013-01-02 02:40:00,
2013-01-01 21:41:00,69.8,62.3,30.00,South,189,0.0,8.0,77,0.00,,,0.00,Wunderground v.1.15,2013-01-02 02:41:00,
2013-01-01 21:46:00,69.4,61.9,30.00,South,191,0.0,8.0,77,0.00,,,0.00,Wunderground v.1.15,2013-01-02 02:46:00,
2013-01-01 21:47:00,69.4,61.9,30.00,South,189,0.0,8.0,77,0.00,,,0.00,Wunderground v.1.15,2013-01-02 02:47:00,
2013-01-01 21:48:00,69.4,61.9,30.00,South,189,0.0,8.0,77,0.00,,,0.00,Wunderground v.1.15,2013-01-02 02:48:00,
2013-01-01 21:50:00,69.3,62.1,30.00,South,189,0.0,8.0,78,0.00,,,0.00,Wunderground v.1.15,2013-01-02 02:50:00,
2013-01-01 21:52:00,69.3,62.1,30.00,South,189,0.0,8.0,78,0.00,,,0.00,Wunderground v.1.15,2013-01-02 02:52:00,
2013-01-01 21:55:00,69.3,63.2,30.00,South,191,0.0,8.0,81,0.00,,,0.00,Wunderground v.1.15,2013-01-02 02:55:00,
2013-01-01 21:58:00,69.1,63.0,30.00,South,191,0.0,8.0,81,0.00,,,0.00,Wunderground v.1.15,2013-01-02 02:58:00,
2013-01-01 21:59:00,69.1,63.0,30.00,South,189,0.0,8.0,81,0.00,,,0.00,Wunderground v.1.15,2013-01-02 02:59:00,
2013-01-01 22:01:00,68.9,62.8,30.00,South,189,0.0,8.0,81,0.00,,,0.00,Wunderground v.1.15,2013-01-02 03:01:00,
2013-01-01 22:03:00,68.8,62.7,30.00,South,191,0.0,8.0,81,0.00,,,0.00,Wunderground v.1.15,2013-01-02 03:03:00,
2013-01-01 22:06:00,68.6,62.5,30.00,South,189,0.0,8.0,81,0.00,,,0.00,Wunderground v.1.15,2013-01-02 03:06:00,
2013-01-01 22:07:00,68.6,62.5,30.00,South,189,0.0,8.0,81,0.00,,,0.00,Wunderground v.1.15,2013-01-02 03:07:00,
2013-01-01 22:08:00,68.6,62.5,30.00,South,189,0.0,8.0,81,0.00,,,0.00,Wunderground v.1.15,2013-01-02 03:08:00,
2013-01-01 22:09:00,68.6,62.5,30.00,South,189,0.0,8.0,81,0.00,,,0.00,Wunderground v.1.15,2013-01-02 03:09:00,
2013-01-01 22:12:00,68.4,62.3,30.00,South,189,0.0,8.0,81,0.00,,,0.00,Wunderground v.1.15,2013-01-02 03:12:00,
2013-01-01 22:14:00,68.4,62.3,30.00,South,189,0.0,8.0,81,0.00,,,0.00,Wunderground v.1.15,2013-01-02 03:14:00,
2013-01-01 22:15:00,68.4,62.3,30.00,South,189,0.0,8.0,81,0.00,,,0.00,Wunderground v.1.15,2013-01-02 03:15:00,
2013-01-01 22:18:00,68.3,62.2,30.00,South,189,0.0,8.0,81,0.00,,,0.00,Wunderground v.1.15,2013-01-02 03:18:00,
2013-01-01 22:20:00,68.3,62.2,30.00,South,191,0.0,8.0,81,0.00,,,0.00,Wunderground v.1.15,2013-01-02 03:20:00,
2013-01-01 22:23:00,68.3,62.2,30.00,South,189,0.0,8.0,81,0.00,,,0.00,Wunderground v.1.15,2013-01-02 03:23:00,
2013-01-01 22:24:00,68.3,62.2,30.00,South,189,0.0,8.0,81,0.00,,,0.00,Wunderground v.1.15,2013-01-02 03:24:00,
2013-01-01 22:28:00,68.1,62.0,30.00,South,189,0.0,8.0,81,0.00,,,0.00,Wunderground v.1.15,2013-01-02 03:28:00,
2013-01-01 22:30:00,68.1,62.0,30.00,South,189,0.0,8.0,81,0.00,,,0.00,Wunderground v.1.15,2013-01-02 03:30:00,
2013-01-01 22:32:00,68.1,62.0,30.00,South,189,0.0,8.0,81,0.00,,,0.00,Wunderground v.1.15,2013-01-02 03:32:00,
2013-01-01 22:36:00,67.9,61.9,30.00,South,189,0.0,8.0,81,0.00,,,0.00,Wunderground v.1.15,2013-01-02 03:36:00,
2013-01-01 22:37:00,67.9,61.9,30.00,South,189,0.0,8.0,81,0.00,,,0.00,Wunderground v.1.15,2013-01-02 03:37:00,
2013-01-01 22:38:00,67.9,61.9,30.00,South,189,0.0,8.0,81,0.00,,,0.00,Wunderground v.1.15,2013-01-02 03:38:00,
2013-01-01 22:43:00,67.6,61.6,30.00,South,189,0.0,8.0,81,0.00,,,0.00,Wunderground v.1.15,2013-01-02 03:43:00,
2013-01-01 22:44:00,67.6,61.6,30.00,South,189,0.0,8.0,81,0.00,,,0.00,Wunderground v.1.15,2013-01-02 03:44:00,
2013-01-01 22:45:00,67.6,61.6,29.99,South,189,0.0,8.0,81,0.00,,,0.00,Wunderground v.1.15,2013-01-02 03:45:00,
2013-01-01 22:48:00,67.4,61.7,29.99,South,189,0.0,8.0,82,0.00,,,0.00,Wunderground v.1.15,2013-01-02 03:48:00,
2013-01-01 22:54:00,67.1,61.4,29.99,South,189,0.0,8.0,82,0.00,,,0.00,Wunderground v.1.15,2013-01-02 03:54:00,
2013-01-01 22:55:00,67.1,61.8,29.99,South,191,0.0,8.0,83,0.00,,,0.00,Wunderground v.1.15,2013-01-02 03:55:00,
2013-01-01 22:56:00,67.1,61.8,29.99,South,191,0.0,8.0,83,0.00,,,0.00,Wunderground v.1.15,2013-01-02 03:56:00,
2013-01-01 22:59:00,66.9,61.6,29.99,South,189,0.0,8.0,83,0.00,,,0.00,Wunderground v.1.15,2013-01-02 03:59:00,
2013-01-01 23:01:00,66.8,61.5,29.99,South,191,0.0,8.0,83,0.00,,,0.00,Wunderground v.1.15,2013-01-02 04:01:00,
2013-01-01 23:02:00,66.8,61.5,29.99,South,189,0.0,8.0,83,0.00,,,0.00,Wunderground v.1.15,2013-01-02 04:02:00,
2013-01-01 23:05:00,66.8,61.8,29.99,South,191,0.0,8.0,84,0.00,,,0.00,Wunderground v.1.15,2013-01-02 04:05:00,
2013-01-01 23:09:00,66.6,61.6,29.99,South,191,0.0,8.0,84,0.00,,,0.00,Wunderground v.1.15,2013-01-02 04:09:00,
2013-01-01 23:11:00,66.6,61.6,29.99,South,189,0.0,8.0,84,0.00,,,0.00,Wunderground v.1.15,2013-01-02 04:11:00,
2013-01-01 23:16:00,66.4,61.4,29.99,South,189,0.0,8.0,84,0.00,,,0.00,Wunderground v.1.15,2013-01-02 04:16:00,
2013-01-01 23:18:00,66.4,61.4,29.99,South,189,0.0,8.0,84,0.00,,,0.00,Wunderground v.1.15,2013-01-02 04:18:00,
2013-01-01 23:19:00,66.4,61.4,29.99,South,189,0.0,8.0,84,0.00,,,0.00,Wunderground v.1.15,2013-01-02 04:19:00,
2013-01-01 23:21:00,66.3,61.3,29.99,South,191,0.0,8.0,84,0.00,,,0.00,Wunderground v.1.15,2013-01-02 04:21:00,
2013-01-01 23:25:00,66.1,61.1,29.99,South,191,0.0,8.0,84,0.00,,,0.00,Wunderground v.1.15,2013-01-02 04:25:00,
2013-01-01 23:27:00,66.1,61.1,29.99,South,189,0.0,8.0,84,0.00,,,0.00,Wunderground v.1.15,2013-01-02 04:27:00,
2013-01-01 23:30:00,66.0,61.4,29.98,South,191,0.0,8.0,85,0.00,,,0.00,Wunderground v.1.15,2013-01-02 04:30:00,
2013-01-01 23:31:00,66.0,61.4,29.98,South,189,0.0,8.0,85,0.00,,,0.00,Wunderground v.1.15,2013-01-02 04:31:00,
2013-01-01 23:36:00,65.8,61.2,29.98,South,191,0.0,8.0,85,0.00,,,0.00,Wunderground v.1.15,2013-01-02 04:36:00,
2013-01-01 23:38:00,65.8,61.5,29.98,South,189,0.0,8.0,86,0.00,,,0.00,Wunderground v.1.15,2013-01-02 04:38:00,
2013-01-01 23:41:00,65.6,61.3,29.98,South,189,0.0,8.0,86,0.00,,,0.00,Wunderground v.1.15,2013-01-02 04:41:00,
2013-01-01 23:44:00,65.6,61.3,29.98,South,191,0.0,8.0,86,0.00,,,0.00,Wunderground v.1.15,2013-01-02 04:44:00,
2013-01-01 23:46:00,65.5,61.2,29.98,South,189,0.0,8.0,86,0.00,,,0.00,Wunderground v.1.15,2013-01-02 04:46:00,
2013-01-01 23:48:00,65.5,61.2,29.98,South,189,0.0,8.0,86,0.00,,,0.00,Wunderground v.1.15,2013-01-02 04:48:00,
2013-01-01 23:50:00,65.5,61.2,29.98,South,189,0.0,8.0,86,0.00,,,0.00,Wunderground v.1.15,2013-01-02 04:50:00,
2013-01-01 23:52:00,65.3,61.3,29.98,South,191,0.0,8.0,87,0.00,,,0.00,Wunderground v.1.15,2013-01-02 04:52:00,
2013-01-01 23:55:00,65.2,61.2,29.98,South,189,0.0,8.0,87,0.00,,,0.00,Wunderground v.1.15,2013-01-02 04:55:00,
2013-01-01 23:57:00,65.2,61.2,29.98,South,189,0.0,8.0,87,0.00,,,0.00,Wunderground v.1.15,2013-01-02 04:57:00,
2013-01-01 23:59:00,65.0,61.0,29.98,South,191,0.0,8.0,87,0.00,,,0.00,Wunderground v.1.15,2013-01-02 04:59:00,